| time (UTC) | temp F | wind direction | speed MPH | gust MPH | rain 1hr in | rain 24hr in | rain mn in | humidity % | barometer mb |
| 20260507070055 | 54 | 34 | 0.0 | 3.0 | 0.00 | 0.46 | 0.08 | 93 | 1009.7 |
| 20260507065952 | 54 | 34 | 0.0 | 3.0 | 0.00 | 0.46 | 0.08 | 93 | 1009.8 |
| 20260507065848 | 54 | 17 | 0.0 | 3.0 | 0.00 | 0.46 | 0.08 | 93 | 1009.8 |
| 20260507065745 | 54 | 17 | 0.0 | 3.0 | 0.00 | 0.46 | 0.08 | 93 | 1009.8 |
| 20260507065639 | 54 | 17 | 0.0 | 3.0 | 0.00 | 0.46 | 0.08 | 93 | 1009.8 |
| 20260507065535 | 54 | 316 | 0.0 | 3.0 | 0.00 | 0.46 | 0.08 | 93 | 1009.8 |
| 20260507065432 | 54 | 316 | 0.0 | 3.0 | 0.00 | 0.46 | 0.08 | 93 | 1009.8 |
| 20260507065105 | 54 | 316 | 0.0 | 3.0 | 0.00 | 0.46 | 0.08 | 93 | 1009.9 |
| 20260507064959 | 54 | 316 | 0.0 | 3.0 | 0.00 | 0.46 | 0.08 | 93 | 1009.9 |
| 20260507064852 | 54 | 316 | 0.0 | 3.0 | 0.00 | 0.46 | 0.08 | 93 | 1009.9 |
| 20260507064747 | 54 | 315 | 0.0 | 1.0 | 0.00 | 0.46 | 0.08 | 93 | 1009.9 |
| 20260507064640 | 54 | 5 | 0.0 | 0.0 | 0.00 | 0.46 | 0.08 | 93 | 1009.9 |
| 20260507064100 | 54 | 23 | 0.0 | 2.0 | 0.00 | 0.46 | 0.08 | 93 | 1009.8 |
| 20260507063954 | 54 | 23 | 0.0 | 2.0 | 0.00 | 0.46 | 0.08 | 93 | 1009.8 |
| 20260507063850 | 54 | 47 | 0.0 | 2.0 | 0.00 | 0.46 | 0.08 | 93 | 1009.8 |
| 20260507063529 | 54 | 338 | 0.0 | 2.0 | 0.00 | 0.46 | 0.08 | 93 | 1009.9 |
| 20260507063426 | 54 | 91 | 0.0 | 2.0 | 0.00 | 0.46 | 0.08 | 93 | 1009.9 |
| 20260507063322 | 54 | 313 | 0.0 | 0.0 | 0.00 | 0.46 | 0.08 | 93 | 1009.9 |
| 20260507063216 | 54 | 309 | 0.0 | 0.0 | 0.00 | 0.46 | 0.08 | 93 | 1010.0 |
| 20260507063113 | 54 | 296 | 0.0 | 0.0 | 0.00 | 0.46 | 0.08 | 93 | 1010.0 |
| 20260507063009 | 54 | 296 | 0.0 | 0.0 | 0.00 | 0.46 | 0.08 | 93 | 1010.0 |
| 20260507062902 | 54 | 296 | 0.0 | 1.0 | 0.00 | 0.46 | 0.08 | 93 | 1010.0 |
| 20260507062758 | 54 | 296 | 0.0 | 1.0 | 0.00 | 0.46 | 0.08 | 93 | 1010.0 |
| 20260507062652 | 55 | 275 | 0.0 | 0.0 | 0.00 | 0.46 | 0.08 | 93 | 1010.1 |
| 20260507062550 | 55 | 275 | 0.0 | 0.0 | 0.00 | 0.46 | 0.08 | 93 | 1010.0 |
| 20260507062446 | 55 | 275 | 0.0 | 2.0 | 0.00 | 0.46 | 0.08 | 93 | 1010.1 |
| 20260507062338 | 55 | 275 | 0.0 | 2.0 | 0.00 | 0.46 | 0.08 | 93 | 1010.1 |
| 20260507062012 | 55 | 355 | 0.0 | 0.0 | 0.00 | 0.46 | 0.08 | 93 | 1009.9 |
| 20260507061909 | 55 | 355 | 0.0 | 0.0 | 0.00 | 0.46 | 0.08 | 93 | 1009.9 |
| 20260507061803 | 55 | 355 | 0.0 | 0.0 | 0.00 | 0.46 | 0.08 | 93 | 1010.0 |
| 20260507061659 | 55 | 355 | 0.0 | 0.0 | 0.00 | 0.46 | 0.08 | 93 | 1010.0 |
| 20260507061555 | 55 | 355 | 0.0 | 0.0 | 0.00 | 0.46 | 0.08 | 93 | 1010.1 |
| 20260507061453 | 55 | 355 | 0.0 | 0.0 | 0.00 | 0.46 | 0.08 | 93 | 1010.2 |
| 20260507061345 | 55 | 355 | 0.0 | 0.0 | 0.00 | 0.46 | 0.08 | 93 | 1010.2 |
| 20260507061243 | 55 | 355 | 0.0 | 0.0 | 0.00 | 0.46 | 0.08 | 93 | 1010.2 |
| 20260507061137 | 55 | 355 | 0.0 | 0.0 | 0.00 | 0.46 | 0.08 | 93 | 1010.2 |
| 20260507061034 | 55 | 355 | 0.0 | 0.0 | 0.00 | 0.46 | 0.08 | 93 | 1010.2 |
| 20260507060929 | 55 | 355 | 0.0 | 0.0 | 0.00 | 0.46 | 0.08 | 93 | 1010.1 |
| 20260507060825 | 55 | 355 | 0.0 | 1.0 | 0.00 | 0.46 | 0.08 | 93 | 1010.1 |
| 20260507060719 | 55 | 355 | 0.0 | 1.0 | 0.00 | 0.46 | 0.08 | 93 | 1010.1 |
| 20260507060613 | 55 | 355 | 0.0 | 1.0 | 0.00 | 0.46 | 0.08 | 93 | 1010.0 |
| 20260507060508 | 55 | 355 | 0.0 | 1.0 | 0.00 | 0.46 | 0.08 | 93 | 1010.0 |
| 20260507060402 | 55 | 355 | 0.0 | 1.0 | 0.00 | 0.46 | 0.08 | 93 | 1009.9 |
| 20260507060301 | 55 | 355 | 0.0 | 1.0 | 0.00 | 0.46 | 0.08 | 93 | 1009.9 |
| 20260507060152 | 55 | 55 | 0.0 | 1.0 | 0.00 | 0.46 | 0.08 | 93 | 1009.8 |
| 20260507060047 | 55 | 70 | 0.0 | 1.0 | 0.00 | 0.46 | 0.08 | 93 | 1009.8 |
| 20260507055940 | 55 | 315 | 0.0 | 3.0 | 0.00 | 0.46 | 0.08 | 93 | 1009.8 |
| 20260507055832 | 55 | 315 | 0.0 | 3.0 | 0.00 | 0.46 | 0.08 | 93 | 1009.9 |
| 20260507055727 | 55 | 315 | 0.0 | 3.0 | 0.00 | 0.46 | 0.08 | 93 | 1009.9 |
| 20260507055623 | 55 | 315 | 0.0 | 3.0 | 0.00 | 0.46 | 0.08 | 94 | 1009.9 |
| 20260507055517 | 56 | 336 | 0.0 | 3.0 | 0.00 | 0.46 | 0.08 | 93 | 1009.9 |
| 20260507055412 | 56 | 331 | 0.0 | 3.0 | 0.00 | 0.46 | 0.08 | 93 | 1009.9 |
| 20260507055306 | 56 | 327 | 0.0 | 3.0 | 0.00 | 0.46 | 0.08 | 93 | 1009.8 |
| 20260507055158 | 56 | 337 | 0.0 | 3.0 | 0.00 | 0.46 | 0.08 | 94 | 1009.6 |
| 20260507055054 | 56 | 342 | 0.0 | 3.0 | 0.00 | 0.46 | 0.08 | 94 | 1009.5 |
| 20260507054725 | 56 | 350 | 0.0 | 3.0 | 0.00 | 0.46 | 0.08 | 93 | 1009.5 |
| 20260507054620 | 56 | 19 | 0.0 | 3.0 | 0.00 | 0.46 | 0.08 | 93 | 1009.6 |
| 20260507054513 | 56 | 119 | 0.0 | 3.0 | 0.00 | 0.46 | 0.08 | 93 | 1009.6 |
| 20260507054407 | 56 | 309 | 0.0 | 3.0 | 0.00 | 0.46 | 0.08 | 93 | 1009.7 |
| 20260507054303 | 56 | 309 | 0.0 | 3.0 | 0.00 | 0.46 | 0.08 | 93 | 1009.7 |
| 20260507053934 | 56 | 339 | 0.0 | 1.0 | 0.04 | 0.46 | 0.08 | 93 | 1009.6 |
| 20260507053832 | 56 | 283 | 0.0 | 1.0 | 0.04 | 0.46 | 0.08 | 93 | 1009.6 |
| 20260507053727 | 56 | 314 | 0.0 | 1.0 | 0.05 | 0.46 | 0.08 | 93 | 1009.6 |
| 20260507053621 | 56 | 312 | 0.0 | 1.0 | 0.05 | 0.46 | 0.08 | 93 | 1009.7 |
| 20260507053517 | 56 | 11 | 0.0 | 1.0 | 0.05 | 0.46 | 0.08 | 93 | 1009.7 |
| 20260507053414 | 56 | 355 | 0.0 | 1.0 | 0.05 | 0.46 | 0.08 | 93 | 1009.7 |
| 20260507053310 | 56 | 355 | 0.0 | 1.0 | 0.05 | 0.46 | 0.08 | 93 | 1009.6 |
| 20260507053205 | 56 | 355 | 0.0 | 1.0 | 0.05 | 0.46 | 0.08 | 93 | 1009.5 |
| 20260507052836 | 56 | 30 | 0.0 | 1.0 | 0.05 | 0.46 | 0.08 | 93 | 1009.6 |
| 20260507052729 | 56 | 30 | 0.0 | 1.0 | 0.05 | 0.46 | 0.08 | 93 | 1009.7 |
| 20260507052405 | 57 | 22 | 0.0 | 0.0 | 0.00 | 0.45 | 0.06 | 93 | 1010.0 |
| 20260507052305 | 57 | 22 | 0.0 | 1.0 | 0.00 | 0.45 | 0.06 | 93 | 1010.0 |
| 20260507052200 | 57 | 22 | 0.0 | 1.0 | 0.00 | 0.45 | 0.06 | 93 | 1010.0 |
| 20260507052057 | 57 | 22 | 0.0 | 1.0 | 0.00 | 0.45 | 0.06 | 93 | 1010.0 |
| 20260507051729 | 57 | 22 | 0.0 | 1.0 | 0.00 | 0.45 | 0.06 | 93 | 1009.8 |
| 20260507051625 | 57 | 22 | 0.0 | 1.0 | 0.00 | 0.45 | 0.06 | 93 | 1009.8 |
| 20260507051518 | 57 | 350 | 0.0 | 1.0 | 0.00 | 0.45 | 0.06 | 93 | 1009.8 |
| 20260507051413 | 57 | 350 | 0.0 | 1.0 | 0.00 | 0.44 | 0.06 | 93 | 1009.8 |
| 20260507051306 | 57 | 350 | 0.0 | 1.0 | 0.00 | 0.44 | 0.06 | 93 | 1009.8 |
| 20260507051200 | 57 | 5 | 0.0 | 1.0 | 0.00 | 0.44 | 0.06 | 92 | 1009.8 |
| 20260507050612 | 57 | 14 | 0.0 | 0.0 | 0.05 | 0.44 | 0.06 | 92 | 1009.5 |
| 20260507050243 | 57 | 14 | 0.0 | 0.0 | 0.06 | 0.44 | 0.06 | 92 | 1009.4 |
| 20260507050140 | 57 | 14 | 0.0 | 0.0 | 0.08 | 0.44 | 0.06 | 92 | 1009.5 |
| 20260507050033 | 57 | 14 | 0.0 | 3.0 | 0.10 | 0.44 | 0.06 | 92 | 1009.4 |
| 20260507045447 | 58 | 101 | 0.0 | 3.0 | 0.12 | 0.43 | 0.06 | 92 | 1009.5 |
| 20260507045125 | 58 | 336 | 0.0 | 3.0 | 0.12 | 0.43 | 0.05 | 93 | 1009.9 |
| 20260507045022 | 58 | 338 | 0.0 | 3.0 | 0.12 | 0.42 | 0.05 | 93 | 1009.8 |
| 20260507044915 | 58 | 35 | 0.0 | 3.0 | 0.12 | 0.42 | 0.04 | 93 | 1009.7 |
| 20260507044809 | 58 | 35 | 0.0 | 3.0 | 0.16 | 0.42 | 0.04 | 93 | 1009.7 |
| 20260507044703 | 58 | 355 | 0.0 | 3.0 | 0.21 | 0.42 | 0.04 | 93 | 1009.7 |
| 20260507044600 | 58 | 355 | 1.0 | 3.0 | 0.27 | 0.42 | 0.04 | 92 | 1009.7 |
| 20260507044454 | 58 | 66 | 1.0 | 3.0 | 0.27 | 0.41 | 0.04 | 93 | 1009.6 |
| 20260507044348 | 58 | 331 | 1.0 | 3.0 | 0.00 | 0.41 | 0.03 | 93 | 1009.4 |
| 20260507044244 | 58 | 0 | 1.0 | 3.0 | 0.00 | 0.40 | 0.03 | 93 | 1009.2 |
| 20260507044139 | 58 | 97 | 0.0 | 3.0 | 0.00 | 0.40 | 0.02 | 93 | 1009.2 |
| 20260507043812 | 59 | 324 | 0.0 | 2.0 | 0.00 | 0.40 | 0.02 | 93 | 1010.0 |
| 20260507043705 | 59 | 266 | 0.0 | 2.0 | 0.00 | 0.40 | 0.02 | 92 | 1009.8 |
| 20260507043342 | 59 | 91 | 0.0 | 2.0 | 0.00 | 0.40 | 0.02 | 92 | 1009.2 |
| 20260507043239 | 59 | 5 | 0.0 | 1.0 | 0.00 | 0.40 | 0.02 | 92 | 1009.3 |
| 20260507043134 | 59 | 5 | 0.0 | 0.0 | 0.04 | 0.40 | 0.02 | 92 | 1009.5 |
| 20260507043030 | 59 | 5 | 0.0 | 0.0 | 0.04 | 0.40 | 0.02 | 92 | 1009.6 |
| 20260507042927 | 59 | 5 | 0.0 | 0.0 | 0.04 | 0.40 | 0.02 | 92 | 1009.6 |
| 20260507042824 | 59 | 5 | 0.0 | 0.0 | 0.04 | 0.40 | 0.02 | 92 | 1009.6 |
| 20260507042717 | 59 | 5 | 0.0 | 0.0 | 0.05 | 0.40 | 0.02 | 92 | 1009.5 |
| 20260507042613 | 59 | 5 | 0.0 | 0.0 | 0.05 | 0.40 | 0.02 | 92 | 1009.5 |
| 20260507042509 | 59 | 5 | 0.0 | 0.0 | 0.06 | 0.40 | 0.02 | 92 | 1009.5 |
| 20260507042144 | 59 | 5 | 0.0 | 0.0 | 0.08 | 0.40 | 0.02 | 92 | 1009.9 |
| 20260507042036 | 59 | 5 | 0.0 | 0.0 | 0.08 | 0.40 | 0.02 | 92 | 1009.9 |
| 20260507041933 | 59 | 5 | 0.0 | 0.0 | 0.08 | 0.40 | 0.02 | 92 | 1010.1 |
| 20260507041826 | 59 | 5 | 0.0 | 0.0 | 0.08 | 0.40 | 0.02 | 91 | 1010.2 |
| 20260507041724 | 59 | 5 | 0.0 | 0.0 | 0.08 | 0.40 | 0.02 | 91 | 1010.1 |
| 20260507041616 | 59 | 5 | 0.0 | 0.0 | 0.08 | 0.39 | 0.02 | 91 | 1010.0 |
| 20260507041514 | 59 | 5 | 0.0 | 0.0 | 0.08 | 0.39 | 0.02 | 91 | 1010.0 |
| 20260507041148 | 59 | 5 | 0.0 | 0.0 | 0.00 | 0.38 | 0.01 | 91 | 1010.0 |
| 20260507041042 | 59 | 5 | 0.0 | 0.0 | 0.00 | 0.38 | 0.01 | 91 | 1010.1 |
| 20260507040934 | 59 | 5 | 0.0 | 0.0 | 0.00 | 0.38 | 0.01 | 91 | 1010.2 |
| 20260507040829 | 59 | 5 | 0.0 | 1.0 | 0.00 | 0.38 | 0.01 | 91 | 1010.2 |
| 20260507040724 | 59 | 5 | 0.0 | 1.0 | 0.00 | 0.38 | 0.01 | 91 | 1010.1 |
| 20260507040621 | 59 | 5 | 0.0 | 0.0 | 0.00 | 0.38 | 0.00 | 91 | 1009.9 |
| 20260507040516 | 59 | 5 | 0.0 | 0.0 | 0.00 | 0.38 | 0.00 | 91 | 1009.9 |
| 20260507040408 | 59 | 5 | 0.0 | 1.0 | 0.00 | 0.38 | 0.00 | 91 | 1009.8 |
| 20260507040301 | 59 | 5 | 0.0 | 1.0 | 0.04 | 0.38 | 0.00 | 91 | 1009.9 |
| 20260507040157 | 59 | 38 | 0.0 | 1.0 | 0.04 | 0.38 | 0.00 | 91 | 1009.9 |
| 20260507040051 | 59 | 214 | 0.0 | 0.0 | 0.04 | 0.38 | 0.00 | 91 | 1009.9 |
| 20260507035728 | 59 | 240 | 0.0 | 2.0 | 0.06 | 0.38 | 0.38 | 91 | 1009.8 |
| 20260507035621 | 59 | 267 | 0.0 | 2.0 | 0.06 | 0.38 | 0.38 | 91 | 1009.8 |
| 20260507035517 | 60 | 253 | 0.0 | 2.0 | 0.06 | 0.38 | 0.38 | 91 | 1009.8 |
| 20260507035411 | 60 | 286 | 0.0 | 2.0 | 0.08 | 0.38 | 0.38 | 91 | 1009.7 |
| 20260507035306 | 60 | 331 | 0.0 | 2.0 | 0.10 | 0.38 | 0.38 | 90 | 1009.3 |
| 20260507035203 | 60 | 331 | 0.0 | 2.0 | 0.12 | 0.38 | 0.38 | 90 | 1009.1 |
| 20260507035057 | 60 | 74 | 0.0 | 2.0 | 0.13 | 0.38 | 0.38 | 90 | 1009.0 |
| 20260507034954 | 60 | 74 | 0.0 | 2.0 | 0.13 | 0.38 | 0.38 | 90 | 1009.0 |
| 20260507034847 | 60 | 43 | 0.0 | 2.0 | 0.13 | 0.38 | 0.38 | 90 | 1009.1 |
| 20260507034740 | 60 | 350 | 0.0 | 2.0 | 0.13 | 0.36 | 0.38 | 90 | 1009.3 |
| 20260507034631 | 60 | 325 | 0.0 | 2.0 | 0.15 | 0.36 | 0.37 | 89 | 1009.2 |
| 20260507034527 | 60 | 325 | 0.0 | 2.0 | 0.21 | 0.36 | 0.37 | 89 | 1009.0 |
| 20260507034425 | 60 | 355 | 0.0 | 1.0 | 0.26 | 0.36 | 0.37 | 90 | 1008.9 |
| 20260507034322 | 60 | 355 | 0.0 | 1.0 | 0.26 | 0.36 | 0.37 | 90 | 1008.8 |
| 20260507034220 | 60 | 110 | 0.0 | 1.0 | 0.00 | 0.36 | 0.36 | 90 | 1008.8 |
| 20260507034115 | 60 | 109 | 0.0 | 1.0 | 0.00 | 0.35 | 0.36 | 90 | 1008.8 |
| 20260507034009 | 60 | 349 | 0.0 | 1.0 | 0.00 | 0.35 | 0.35 | 89 | 1008.8 |
| 20260507033640 | 60 | 330 | 0.0 | 1.0 | 0.00 | 0.35 | 0.35 | 88 | 1009.4 |
| 20260507033535 | 60 | 74 | 0.0 | 1.0 | 0.00 | 0.35 | 0.35 | 88 | 1009.2 |
| 20260507033432 | 60 | 41 | 0.0 | 0.0 | 0.00 | 0.35 | 0.35 | 88 | 1009.2 |
| 20260507033327 | 60 | 113 | 0.0 | 0.0 | 0.00 | 0.35 | 0.35 | 89 | 1009.2 |
| 20260507033221 | 60 | 113 | 0.0 | 2.0 | 0.00 | 0.35 | 0.35 | 89 | 1009.1 |
| 20260507033116 | 60 | 115 | 0.0 | 2.0 | 0.00 | 0.35 | 0.35 | 89 | 1009.2 |
| 20260507033012 | 60 | 30 | 0.0 | 0.0 | 0.00 | 0.35 | 0.35 | 89 | 1009.2 |
| 20260507032910 | 60 | 30 | 0.0 | 0.0 | 0.00 | 0.35 | 0.35 | 89 | 1009.2 |
| 20260507032805 | 60 | 30 | 0.0 | 0.0 | 0.00 | 0.35 | 0.35 | 89 | 1009.3 |
| 20260507032658 | 60 | 22 | 0.0 | 0.0 | 0.00 | 0.35 | 0.35 | 89 | 1009.3 |
| 20260507032338 | 61 | 24 | 0.0 | 1.0 | 0.00 | 0.35 | 0.35 | 89 | 1009.3 |
| 20260507032231 | 61 | 24 | 0.0 | 1.0 | 0.00 | 0.35 | 0.35 | 89 | 1009.3 |
| 20260507032124 | 61 | 182 | 0.0 | 0.0 | 0.00 | 0.35 | 0.35 | 89 | 1009.3 |
| 20260507032017 | 61 | 182 | 0.0 | 0.0 | 0.00 | 0.35 | 0.35 | 89 | 1009.2 |
| 20260507031913 | 61 | 182 | 0.0 | 1.0 | 0.00 | 0.35 | 0.35 | 89 | 1009.3 |
| 20260507031811 | 61 | 186 | 0.0 | 1.0 | 0.00 | 0.35 | 0.35 | 90 | 1009.3 |
| 20260507031704 | 61 | 186 | 0.0 | 1.0 | 0.00 | 0.35 | 0.35 | 90 | 1009.2 |
| 20260507031558 | 61 | 19 | 0.0 | 0.0 | 0.00 | 0.35 | 0.35 | 90 | 1009.3 |
| 20260507031234 | 61 | 59 | 0.0 | 1.0 | 0.00 | 0.35 | 0.35 | 90 | 1009.1 |
| 20260507030907 | 61 | 128 | 0.0 | 1.0 | 0.00 | 0.35 | 0.35 | 90 | 1009.1 |
| 20260507030803 | 61 | 150 | 0.0 | 1.0 | 0.00 | 0.35 | 0.35 | 90 | 1009.1 |
| 20260507030700 | 61 | 171 | 0.0 | 1.0 | 0.00 | 0.35 | 0.35 | 90 | 1009.3 |
| 20260507030557 | 61 | 13 | 0.0 | 1.0 | 0.00 | 0.35 | 0.35 | 90 | 1009.4 |
| 20260507030234 | 61 | 0 | 0.0 | 0.0 | 0.00 | 0.35 | 0.35 | 91 | 1009.1 |
| 20260507030131 | 61 | 58 | 0.0 | 2.0 | 0.00 | 0.35 | 0.35 | 91 | 1009.1 |
| 20260507030024 | 61 | 98 | 0.0 | 2.0 | 0.00 | 0.35 | 0.35 | 91 | 1009.1 |
| 20260507025919 | 61 | 328 | 0.0 | 2.0 | 0.00 | 0.35 | 0.35 | 91 | 1009.3 |
| 20260507025812 | 61 | 328 | 0.0 | 2.0 | 0.00 | 0.35 | 0.35 | 91 | 1009.3 |
| 20260507025705 | 62 | 328 | 0.0 | 2.0 | 0.00 | 0.35 | 0.35 | 91 | 1009.2 |
| 20260507025559 | 62 | 293 | 0.0 | 2.0 | 0.00 | 0.35 | 0.35 | 91 | 1009.1 |
| 20260507025453 | 62 | 16 | 0.0 | 2.0 | 0.00 | 0.35 | 0.35 | 91 | 1009.0 |
| 20260507025350 | 62 | 16 | 0.0 | 2.0 | 0.00 | 0.35 | 0.35 | 91 | 1008.8 |
| 20260507025247 | 62 | 16 | 0.0 | 2.0 | 0.00 | 0.35 | 0.35 | 91 | 1008.7 |
| 20260507025145 | 62 | 16 | 0.0 | 2.0 | 0.00 | 0.35 | 0.35 | 91 | 1008.7 |
| 20260507024824 | 62 | 319 | 0.0 | 2.0 | 0.00 | 0.35 | 0.35 | 91 | 1008.6 |
| 20260507024717 | 62 | 5 | 0.0 | 2.0 | 0.00 | 0.35 | 0.35 | 91 | 1008.6 |
| 20260507024610 | 62 | 348 | 0.0 | 2.0 | 0.00 | 0.35 | 0.35 | 91 | 1008.5 |
| 20260507024504 | 62 | 348 | 0.0 | 2.0 | 0.00 | 0.35 | 0.35 | 92 | 1008.5 |
| 20260507024358 | 62 | 0 | 0.0 | 2.0 | 0.00 | 0.35 | 0.35 | 92 | 1008.5 |
| 20260507024252 | 62 | 0 | 0.0 | 2.0 | 0.00 | 0.35 | 0.35 | 92 | 1008.5 |
| 20260507024148 | 62 | 39 | 0.0 | 0.0 | 0.00 | 0.35 | 0.35 | 92 | 1008.5 |
| 20260507024041 | 62 | 331 | 0.0 | 0.0 | 0.00 | 0.35 | 0.35 | 92 | 1008.5 |
| 20260507023720 | 62 | 94 | 0.0 | 1.0 | 0.00 | 0.35 | 0.35 | 92 | 1008.4 |
| 20260507023618 | 63 | 22 | 0.0 | 1.0 | 0.00 | 0.35 | 0.35 | 92 | 1008.4 |
| 20260507023515 | 63 | 57 | 0.0 | 1.0 | 0.00 | 0.35 | 0.35 | 92 | 1008.4 |
| 20260507023411 | 63 | 57 | 0.0 | 1.0 | 0.00 | 0.35 | 0.35 | 92 | 1008.5 |
| 20260507023309 | 63 | 57 | 0.0 | 1.0 | 0.00 | 0.35 | 0.35 | 92 | 1008.5 |
| 20260507023204 | 63 | 57 | 0.0 | 1.0 | 0.00 | 0.35 | 0.35 | 92 | 1008.6 |
| 20260507023058 | 63 | 74 | 0.0 | 1.0 | 0.00 | 0.35 | 0.35 | 92 | 1008.6 |
| 20260507022956 | 63 | 260 | 0.0 | 1.0 | 0.00 | 0.35 | 0.35 | 92 | 1008.7 |
| 20260507022852 | 63 | 15 | 0.0 | 1.0 | 0.00 | 0.35 | 0.35 | 92 | 1008.8 |
| 20260507022746 | 63 | 22 | 0.0 | 1.0 | 0.00 | 0.35 | 0.35 | 92 | 1008.8 |
| 20260507022640 | 63 | 350 | 0.0 | 1.0 | 0.00 | 0.35 | 0.35 | 92 | 1008.7 |
| 20260507022534 | 63 | 350 | 0.0 | 1.0 | 0.00 | 0.35 | 0.35 | 92 | 1008.6 |
| 20260507022428 | 63 | 69 | 0.0 | 1.0 | 0.00 | 0.35 | 0.35 | 92 | 1008.6 |
| 20260507022323 | 63 | 9 | 0.0 | 0.0 | 0.00 | 0.35 | 0.35 | 92 | 1008.6 |
| 20260507022220 | 63 | 9 | 0.0 | 1.0 | 0.00 | 0.35 | 0.35 | 92 | 1008.6 |
| 20260507022117 | 63 | 5 | 0.0 | 1.0 | 0.00 | 0.35 | 0.35 | 92 | 1008.6 |
| 20260507022014 | 63 | 5 | 0.0 | 1.0 | 0.00 | 0.35 | 0.35 | 92 | 1008.5 |
| 20260507021908 | 63 | 9 | 0.0 | 1.0 | 0.00 | 0.35 | 0.35 | 92 | 1008.5 |
| 20260507021802 | 63 | 9 | 0.0 | 1.0 | 0.00 | 0.35 | 0.35 | 92 | 1008.5 |
| 20260507021657 | 63 | 9 | 0.0 | 0.0 | 0.00 | 0.35 | 0.35 | 92 | 1008.5 |
| 20260507021332 | 64 | 9 | 0.0 | 0.0 | 0.00 | 0.35 | 0.35 | 92 | 1008.6 |
| 20260507021227 | 64 | 9 | 0.0 | 1.0 | 0.00 | 0.35 | 0.35 | 92 | 1008.6 |
| 20260507021124 | 64 | 9 | 0.0 | 1.0 | 0.00 | 0.35 | 0.35 | 92 | 1008.5 |
| 20260507021022 | 64 | 9 | 0.0 | 1.0 | 0.00 | 0.35 | 0.35 | 92 | 1008.4 |
| 20260507020916 | 64 | 313 | 0.0 | 0.0 | 0.00 | 0.35 | 0.35 | 92 | 1008.4 |
| 20260507020551 | 64 | 313 | 0.0 | 1.0 | 0.00 | 0.35 | 0.35 | 92 | 1008.5 |
| 20260507020230 | 64 | 313 | 0.0 | 1.0 | 0.00 | 0.35 | 0.35 | 92 | 1008.1 |
| 20260507020124 | 64 | 313 | 0.0 | 1.0 | 0.00 | 0.35 | 0.35 | 92 | 1008.0 |
| 20260507020017 | 64 | 313 | 0.0 | 1.0 | 0.00 | 0.35 | 0.35 | 92 | 1008.0 |
| 20260507015913 | 64 | 313 | 0.0 | 1.0 | 0.00 | 0.35 | 0.35 | 92 | 1008.0 |
| 20260507015808 | 64 | 313 | 0.0 | 1.0 | 0.00 | 0.35 | 0.35 | 91 | 1008.1 |
| 20260507015704 | 64 | 313 | 0.0 | 1.0 | 0.00 | 0.35 | 0.35 | 91 | 1008.1 |
| 20260507015600 | 64 | 313 | 0.0 | 1.0 | 0.00 | 0.35 | 0.35 | 91 | 1008.1 |
| 20260507015458 | 64 | 313 | 0.0 | 1.0 | 0.00 | 0.35 | 0.35 | 91 | 1008.1 |
| 20260507015351 | 64 | 313 | 0.0 | 1.0 | 0.00 | 0.35 | 0.35 | 91 | 1008.1 |
| 20260507015024 | 65 | 313 | 0.0 | 0.0 | 0.00 | 0.35 | 0.35 | 91 | 1008.0 |
| 20260507014917 | 65 | 313 | 0.0 | 0.0 | 0.00 | 0.35 | 0.35 | 91 | 1008.0 |
| 20260507014556 | 65 | 313 | 0.0 | 0.0 | 0.00 | 0.35 | 0.35 | 91 | 1008.0 |
| 20260507014447 | 65 | 313 | 0.0 | 0.0 | 0.00 | 0.35 | 0.35 | 91 | 1008.1 |
| 20260507014343 | 65 | 313 | 0.0 | 0.0 | 0.00 | 0.35 | 0.35 | 91 | 1008.2 |
| 20260507014240 | 65 | 313 | 0.0 | 0.0 | 0.00 | 0.35 | 0.35 | 91 | 1008.3 |
| 20260507014133 | 65 | 313 | 0.0 | 0.0 | 0.00 | 0.35 | 0.35 | 91 | 1008.3 |
| 20260507014026 | 65 | 313 | 0.0 | 0.0 | 0.00 | 0.35 | 0.35 | 91 | 1008.3 |
| 20260507013920 | 65 | 313 | 0.0 | 0.0 | 0.00 | 0.35 | 0.35 | 91 | 1008.3 |
| 20260507013816 | 65 | 313 | 0.0 | 0.0 | 0.00 | 0.35 | 0.35 | 92 | 1008.4 |
| 20260507013709 | 65 | 313 | 0.0 | 0.0 | 0.00 | 0.35 | 0.35 | 92 | 1008.5 |
| 20260507013606 | 65 | 273 | 0.0 | 1.0 | 0.00 | 0.35 | 0.35 | 92 | 1008.6 |
| 20260507013459 | 65 | 273 | 0.0 | 1.0 | 0.00 | 0.35 | 0.35 | 92 | 1008.6 |
| 20260507013132 | 65 | 286 | 0.0 | 1.0 | 0.04 | 0.35 | 0.35 | 92 | 1008.4 |
| 20260507013028 | 65 | 309 | 0.0 | 1.0 | 0.04 | 0.35 | 0.35 | 92 | 1008.3 |
| 20260507012925 | 65 | 26 | 0.0 | 0.0 | 0.05 | 0.35 | 0.35 | 91 | 1008.3 |
| 20260507012816 | 65 | 26 | 0.0 | 0.0 | 0.05 | 0.35 | 0.35 | 91 | 1008.2 |
| 20260507012711 | 65 | 26 | 0.0 | 0.0 | 0.06 | 0.35 | 0.35 | 91 | 1008.1 |
| 20260507012607 | 65 | 26 | 0.0 | 0.0 | 0.06 | 0.35 | 0.35 | 91 | 1008.1 |
| 20260507012505 | 65 | 26 | 0.0 | 0.0 | 0.06 | 0.35 | 0.35 | 91 | 1008.1 |
| 20260507012402 | 65 | 26 | 0.0 | 0.0 | 0.08 | 0.35 | 0.35 | 91 | 1008.1 |
| 20260507012300 | 65 | 26 | 0.0 | 0.0 | 0.10 | 0.35 | 0.35 | 91 | 1008.1 |
| 20260507012157 | 65 | 26 | 0.0 | 0.0 | 0.12 | 0.35 | 0.35 | 91 | 1008.1 |
| 20260507012051 | 65 | 26 | 0.0 | 0.0 | 0.13 | 0.35 | 0.35 | 91 | 1008.2 |
| 20260507011944 | 66 | 26 | 0.0 | 0.0 | 0.13 | 0.35 | 0.35 | 91 | 1008.2 |
| 20260507011838 | 66 | 26 | 0.0 | 0.0 | 0.13 | 0.35 | 0.35 | 91 | 1008.3 |
| 20260507011736 | 66 | 26 | 0.0 | 0.0 | 0.13 | 0.33 | 0.35 | 91 | 1008.3 |
| 20260507011634 | 65 | 26 | 0.0 | 0.0 | 0.13 | 0.33 | 0.34 | 91 | 1008.4 |
| 20260507011526 | 66 | 26 | 0.0 | 0.0 | 0.18 | 0.33 | 0.34 | 91 | 1008.5 |
| 20260507011422 | 66 | 26 | 0.0 | 0.0 | 0.26 | 0.33 | 0.34 | 91 | 1008.5 |
| 20260507011314 | 66 | 26 | 0.0 | 0.0 | 0.27 | 0.32 | 0.34 | 91 | 1008.5 |
| 20260507010948 | 66 | 26 | 0.0 | 0.0 | 0.00 | 0.32 | 0.32 | 91 | 1008.4 |
| 20260507010846 | 66 | 26 | 0.0 | 1.0 | 0.00 | 0.32 | 0.32 | 91 | 1008.4 |
| 20260507010744 | 66 | 26 | 0.0 | 1.0 | 0.00 | 0.32 | 0.32 | 90 | 1008.4 |
| 20260507010637 | 66 | 26 | 0.0 | 1.0 | 0.00 | 0.32 | 0.32 | 90 | 1008.5 |
| 20260507010534 | 66 | 26 | 0.0 | 1.0 | 0.00 | 0.32 | 0.32 | 90 | 1008.5 |
| 20260507010425 | 66 | 26 | 0.0 | 1.0 | 0.00 | 0.32 | 0.32 | 90 | 1008.6 |
| 20260507010321 | 66 | 26 | 0.0 | 1.0 | 0.00 | 0.32 | 0.32 | 90 | 1008.6 |
| 20260507005950 | 66 | 19 | 0.0 | 0.0 | 0.00 | 0.32 | 0.32 | 90 | 1008.6 |
| 20260507005844 | 66 | 19 | 0.0 | 0.0 | 0.00 | 0.32 | 0.32 | 90 | 1008.6 |
| 20260507005741 | 66 | 19 | 0.0 | 0.0 | 0.00 | 0.32 | 0.32 | 90 | 1008.6 |
| 20260507005636 | 66 | 19 | 0.0 | 0.0 | 0.00 | 0.32 | 0.32 | 90 | 1008.6 |
| 20260507005533 | 66 | 19 | 0.0 | 0.0 | 0.00 | 0.32 | 0.32 | 90 | 1008.6 |
| 20260507005427 | 66 | 19 | 0.0 | 0.0 | 0.00 | 0.32 | 0.32 | 90 | 1008.5 |
| 20260507005325 | 66 | 19 | 0.0 | 0.0 | 0.00 | 0.32 | 0.32 | 90 | 1008.5 |
| 20260507005220 | 66 | 19 | 0.0 | 0.0 | 0.00 | 0.32 | 0.32 | 90 | 1008.4 |
| 20260507005116 | 66 | 19 | 0.0 | 0.0 | 0.00 | 0.32 | 0.32 | 90 | 1008.5 |
| 20260507005009 | 66 | 19 | 0.0 | 0.0 | 0.00 | 0.32 | 0.32 | 90 | 1008.4 |
| 20260507004901 | 66 | 19 | 0.0 | 0.0 | 0.00 | 0.32 | 0.32 | 90 | 1008.3 |
| 20260507004537 | 66 | 19 | 0.0 | 0.0 | 0.00 | 0.32 | 0.32 | 90 | 1008.2 |
| 20260507004435 | 66 | 19 | 0.0 | 0.0 | 0.00 | 0.32 | 0.32 | 89 | 1008.2 |
| 20260507004328 | 66 | 19 | 0.0 | 0.0 | 0.00 | 0.32 | 0.32 | 90 | 1008.1 |
| 20260507004223 | 66 | 19 | 0.0 | 0.0 | 0.00 | 0.32 | 0.32 | 89 | 1008.0 |
| 20260507004119 | 66 | 19 | 0.0 | 0.0 | 0.00 | 0.32 | 0.32 | 90 | 1008.0 |
| 20260507003755 | 66 | 19 | 0.0 | 0.0 | 0.00 | 0.32 | 0.32 | 89 | 1007.9 |
| 20260507003648 | 66 | 19 | 0.0 | 0.0 | 0.00 | 0.32 | 0.32 | 89 | 1007.9 |
| 20260507003545 | 66 | 19 | 0.0 | 0.0 | 0.00 | 0.32 | 0.32 | 89 | 1008.0 |
| 20260507003442 | 66 | 19 | 0.0 | 0.0 | 0.00 | 0.32 | 0.32 | 89 | 1008.0 |
| 20260507003115 | 66 | 19 | 0.0 | 0.0 | 0.00 | 0.32 | 0.32 | 89 | 1008.0 |
| 20260507003011 | 66 | 19 | 0.0 | 0.0 | 0.00 | 0.32 | 0.32 | 89 | 1008.1 |
| 20260507002905 | 66 | 19 | 0.0 | 0.0 | 0.00 | 0.32 | 0.32 | 89 | 1008.0 |
| 20260507002802 | 66 | 19 | 0.0 | 0.0 | 0.00 | 0.32 | 0.32 | 89 | 1008.1 |
| 20260507002439 | 66 | 19 | 0.0 | 0.0 | 0.00 | 0.32 | 0.32 | 89 | 1007.9 |
| 20260507002332 | 66 | 19 | 0.0 | 0.0 | 0.00 | 0.32 | 0.32 | 89 | 1007.9 |
| 20260507002225 | 66 | 19 | 0.0 | 0.0 | 0.00 | 0.32 | 0.32 | 88 | 1007.9 |
| 20260507002123 | 66 | 19 | 0.0 | 0.0 | 0.00 | 0.32 | 0.32 | 88 | 1008.0 |
| 20260507002018 | 66 | 19 | 0.0 | 0.0 | 0.00 | 0.32 | 0.32 | 88 | 1007.9 |
| 20260507001913 | 66 | 19 | 0.0 | 0.0 | 0.00 | 0.32 | 0.32 | 88 | 1007.9 |
| 20260507001807 | 66 | 19 | 0.0 | 0.0 | 0.00 | 0.32 | 0.32 | 88 | 1007.8 |
| 20260507001703 | 66 | 19 | 0.0 | 0.0 | 0.00 | 0.32 | 0.32 | 88 | 1007.8 |
| 20260507001557 | 66 | 19 | 0.0 | 0.0 | 0.00 | 0.32 | 0.32 | 88 | 1007.8 |
| 20260507001452 | 66 | 19 | 0.0 | 0.0 | 0.00 | 0.32 | 0.32 | 88 | 1007.9 |
| 20260507001349 | 66 | 19 | 0.0 | 0.0 | 0.00 | 0.32 | 0.32 | 88 | 1007.9 |
| 20260507001245 | 67 | 19 | 0.0 | 0.0 | 0.00 | 0.32 | 0.32 | 88 | 1007.9 |
| 20260507001138 | 67 | 19 | 0.0 | 0.0 | 0.00 | 0.32 | 0.32 | 88 | 1007.9 |
| 20260507001033 | 67 | 19 | 0.0 | 0.0 | 0.00 | 0.32 | 0.32 | 88 | 1007.9 |
| 20260507000929 | 67 | 19 | 0.0 | 0.0 | 0.00 | 0.32 | 0.32 | 88 | 1007.9 |
| 20260507000826 | 67 | 19 | 0.0 | 0.0 | 0.00 | 0.32 | 0.32 | 89 | 1007.9 |
| 20260507000718 | 67 | 19 | 0.0 | 0.0 | 0.00 | 0.32 | 0.32 | 88 | 1008.0 |
| 20260507000616 | 67 | 19 | 0.0 | 0.0 | 0.00 | 0.32 | 0.32 | 88 | 1008.0 |
| 20260507000509 | 67 | 19 | 0.0 | 0.0 | 0.00 | 0.32 | 0.32 | 88 | 1007.9 |
| 20260507000402 | 67 | 19 | 0.0 | 0.0 | 0.00 | 0.32 | 0.32 | 88 | 1007.8 |
| 20260507000039 | 67 | 19 | 0.0 | 0.0 | 0.00 | 0.32 | 0.32 | 88 | 1007.8 |
| 20260506235932 | 67 | 19 | 0.0 | 0.0 | 0.00 | 0.32 | 0.32 | 88 | 1007.8 |
| 20260506235825 | 67 | 19 | 0.0 | 0.0 | 0.00 | 0.32 | 0.32 | 88 | 1007.7 |
| 20260506235721 | 67 | 19 | 0.0 | 0.0 | 0.00 | 0.32 | 0.32 | 88 | 1007.7 |
| 20260506235618 | 67 | 19 | 0.0 | 0.0 | 0.00 | 0.32 | 0.32 | 88 | 1007.6 |
| 20260506235029 | 67 | 19 | 0.0 | 0.0 | 0.00 | 0.32 | 0.32 | 88 | 1007.5 |
| 20260506234927 | 67 | 19 | 0.0 | 0.0 | 0.00 | 0.32 | 0.32 | 88 | 1007.6 |
| 20260506234825 | 67 | 19 | 0.0 | 0.0 | 0.00 | 0.32 | 0.32 | 88 | 1007.5 |
| 20260506234723 | 67 | 19 | 0.0 | 0.0 | 0.00 | 0.32 | 0.32 | 88 | 1007.5 |
| 20260506234620 | 67 | 19 | 0.0 | 0.0 | 0.00 | 0.32 | 0.32 | 88 | 1007.4 |
| 20260506234516 | 67 | 19 | 0.0 | 0.0 | 0.00 | 0.32 | 0.32 | 88 | 1007.4 |
| 20260506234148 | 67 | 19 | 0.0 | 0.0 | 0.00 | 0.32 | 0.32 | 88 | 1007.3 |
| 20260506233824 | 67 | 19 | 0.0 | 1.0 | 0.00 | 0.32 | 0.32 | 87 | 1007.4 |
| 20260506233720 | 67 | 19 | 0.0 | 1.0 | 0.00 | 0.32 | 0.32 | 87 | 1007.4 |
| 20260506233356 | 68 | 19 | 0.0 | 0.0 | 0.00 | 0.32 | 0.32 | 87 | 1007.2 |
| 20260506233248 | 68 | 19 | 0.0 | 0.0 | 0.00 | 0.32 | 0.32 | 87 | 1007.2 |
| 20260506233142 | 68 | 19 | 0.0 | 0.0 | 0.00 | 0.32 | 0.32 | 87 | 1007.2 |
| 20260506233038 | 68 | 19 | 0.0 | 0.0 | 0.00 | 0.32 | 0.32 | 87 | 1007.2 |
| 20260506232931 | 68 | 19 | 0.0 | 0.0 | 0.00 | 0.32 | 0.32 | 87 | 1007.1 |
| 20260506232829 | 68 | 19 | 0.0 | 0.0 | 0.00 | 0.32 | 0.32 | 87 | 1007.0 |
| 20260506232722 | 68 | 19 | 0.0 | 0.0 | 0.00 | 0.32 | 0.32 | 87 | 1007.0 |
| 20260506232359 | 68 | 19 | 0.0 | 0.0 | 0.00 | 0.32 | 0.32 | 87 | 1006.9 |
| 20260506232254 | 68 | 19 | 0.0 | 0.0 | 0.00 | 0.32 | 0.32 | 87 | 1006.9 |
| 20260506231932 | 68 | 19 | 0.0 | 0.0 | 0.00 | 0.32 | 0.32 | 86 | 1006.9 |
| 20260506231830 | 68 | 19 | 0.0 | 0.0 | 0.00 | 0.32 | 0.32 | 86 | 1006.8 |
| 20260506231722 | 68 | 19 | 0.0 | 0.0 | 0.00 | 0.32 | 0.32 | 86 | 1006.9 |
| 20260506231617 | 68 | 88 | 0.0 | 0.0 | 0.00 | 0.32 | 0.32 | 86 | 1006.9 |
| 20260506231249 | 68 | 88 | 0.0 | 1.0 | 0.00 | 0.32 | 0.32 | 87 | 1006.9 |
| 20260506231143 | 68 | 41 | 0.0 | 1.0 | 0.00 | 0.32 | 0.32 | 86 | 1006.9 |
| 20260506231040 | 68 | 41 | 0.0 | 0.0 | 0.00 | 0.32 | 0.32 | 86 | 1006.9 |
| 20260506230716 | 68 | 34 | 0.0 | 0.0 | 0.00 | 0.32 | 0.32 | 86 | 1007.0 |
| 20260506230608 | 68 | 34 | 0.0 | 0.0 | 0.00 | 0.32 | 0.32 | 86 | 1007.0 |
| 20260506230501 | 68 | 57 | 0.0 | 0.0 | 0.00 | 0.32 | 0.32 | 86 | 1006.8 |
| 20260506230354 | 68 | 59 | 0.0 | 0.0 | 0.00 | 0.32 | 0.32 | 86 | 1006.8 |
| 20260506230248 | 68 | 59 | 0.0 | 1.0 | 0.00 | 0.32 | 0.32 | 86 | 1006.8 |
| 20260506230144 | 68 | 165 | 0.0 | 1.0 | 0.00 | 0.32 | 0.32 | 86 | 1006.8 |
| 20260506230042 | 68 | 241 | 0.0 | 1.0 | 0.00 | 0.32 | 0.32 | 86 | 1006.8 |
| 20260506225937 | 68 | 241 | 0.0 | 1.0 | 0.00 | 0.32 | 0.32 | 86 | 1006.8 |
| 20260506225835 | 68 | 289 | 0.0 | 1.0 | 0.00 | 0.32 | 0.32 | 86 | 1006.8 |
| 20260506225729 | 68 | 289 | 0.0 | 1.0 | 0.00 | 0.32 | 0.32 | 86 | 1006.8 |
| 20260506225622 | 68 | 179 | 0.0 | 1.0 | 0.00 | 0.32 | 0.32 | 86 | 1006.8 |
| 20260506225518 | 68 | 153 | 0.0 | 0.0 | 0.00 | 0.32 | 0.32 | 86 | 1006.8 |
| 20260506224927 | 68 | 84 | 0.0 | 6.0 | 0.00 | 0.32 | 0.32 | 86 | 1006.7 |
| 20260506224824 | 68 | 125 | 0.0 | 6.0 | 0.00 | 0.32 | 0.32 | 86 | 1006.8 |
| 20260506224716 | 68 | 105 | 0.0 | 6.0 | 0.00 | 0.32 | 0.32 | 86 | 1006.8 |
| 20260506223651 | 68 | 239 | 0.0 | 4.0 | 0.00 | 0.32 | 0.32 | 86 | 1006.9 |
| 20260506223546 | 68 | 224 | 0.0 | 4.0 | 0.00 | 0.32 | 0.32 | 86 | 1006.9 |
| 20260506223441 | 68 | 224 | 0.0 | 4.0 | 0.00 | 0.32 | 0.32 | 86 | 1006.8 |
| 20260506223111 | 68 | 167 | 0.0 | 4.0 | 0.00 | 0.32 | 0.32 | 86 | 1006.8 |
| 20260506223003 | 68 | 294 | 0.0 | 4.0 | 0.00 | 0.32 | 0.32 | 86 | 1006.8 |
| 20260506222857 | 68 | 9 | 0.0 | 4.0 | 0.00 | 0.32 | 0.32 | 86 | 1006.8 |
| 20260506222534 | 68 | 213 | 0.0 | 2.0 | 0.00 | 0.32 | 0.32 | 85 | 1006.8 |
| 20260506222427 | 68 | 254 | 0.0 | 1.0 | 0.00 | 0.32 | 0.32 | 86 | 1006.8 |
| 20260506222100 | 68 | 191 | 0.0 | 2.0 | 0.00 | 0.32 | 0.32 | 85 | 1006.8 |
| 20260506221956 | 69 | 191 | 0.0 | 2.0 | 0.00 | 0.32 | 0.32 | 85 | 1006.8 |
| 20260506221854 | 69 | 180 | 0.0 | 2.0 | 0.00 | 0.32 | 0.32 | 85 | 1006.8 |
| 20260506221752 | 69 | 180 | 0.0 | 2.0 | 0.00 | 0.32 | 0.32 | 86 | 1006.8 |
| 20260506221648 | 69 | 180 | 0.0 | 2.0 | 0.00 | 0.32 | 0.32 | 86 | 1006.8 |
| 20260506221542 | 69 | 205 | 0.0 | 2.0 | 0.00 | 0.32 | 0.32 | 85 | 1006.8 |
| 20260506221217 | 69 | 113 | 0.0 | 2.0 | 0.00 | 0.32 | 0.32 | 85 | 1006.8 |
| 20260506221110 | 69 | 177 | 0.0 | 2.0 | 0.00 | 0.32 | 0.32 | 85 | 1006.8 |
| 20260506221007 | 69 | 177 | 0.0 | 1.0 | 0.00 | 0.32 | 0.32 | 84 | 1006.8 |
| 20260506220904 | 69 | 177 | 0.0 | 1.0 | 0.00 | 0.32 | 0.32 | 84 | 1006.8 |
| 20260506220542 | 69 | 350 | 0.0 | 1.0 | 0.00 | 0.32 | 0.32 | 84 | 1006.7 |
| 20260506220218 | 69 | 143 | 0.0 | 1.0 | 0.00 | 0.32 | 0.32 | 85 | 1006.8 |
| 20260506220115 | 69 | 42 | 0.0 | 1.0 | 0.00 | 0.32 | 0.32 | 85 | 1006.8 |
| 20260506220007 | 69 | 171 | 0.0 | 0.0 | 0.00 | 0.32 | 0.32 | 85 | 1006.9 |
| 20260506215903 | 69 | 171 | 0.0 | 0.0 | 0.00 | 0.32 | 0.32 | 85 | 1006.9 |
| 20260506215539 | 69 | 227 | 0.0 | 2.0 | 0.00 | 0.32 | 0.32 | 85 | 1006.9 |
| 20260506215208 | 69 | 63 | 0.0 | 2.0 | 0.00 | 0.32 | 0.32 | 86 | 1007.0 |
| 20260506215102 | 69 | 59 | 0.0 | 1.0 | 0.00 | 0.32 | 0.32 | 86 | 1007.0 |
| 20260506214522 | 69 | 107 | 0.0 | 0.0 | 0.00 | 0.32 | 0.32 | 86 | 1006.9 |
| 20260506214417 | 69 | 107 | 0.0 | 0.0 | 0.00 | 0.32 | 0.32 | 85 | 1006.9 |
| 20260506214313 | 69 | 107 | 0.0 | 0.0 | 0.00 | 0.32 | 0.32 | 85 | 1006.9 |
| 20260506214209 | 69 | 167 | 0.0 | 0.0 | 0.00 | 0.32 | 0.32 | 85 | 1006.9 |
| 20260506214105 | 69 | 167 | 0.0 | 4.0 | 0.00 | 0.32 | 0.32 | 85 | 1006.8 |
| 20260506213959 | 69 | 167 | 0.0 | 4.0 | 0.00 | 0.32 | 0.32 | 85 | 1006.8 |
| 20260506213634 | 69 | 119 | 0.0 | 4.0 | 0.00 | 0.32 | 0.32 | 84 | 1006.8 |
| 20260506213527 | 69 | 119 | 0.0 | 4.0 | 0.00 | 0.32 | 0.32 | 84 | 1006.8 |
| 20260506213420 | 69 | 109 | 0.0 | 4.0 | 0.00 | 0.32 | 0.32 | 84 | 1006.8 |
| 20260506213314 | 68 | 37 | 0.0 | 4.0 | 0.00 | 0.32 | 0.32 | 84 | 1006.9 |
| 20260506213211 | 69 | 101 | 0.0 | 4.0 | 0.00 | 0.32 | 0.32 | 84 | 1006.9 |
| 20260506213106 | 69 | 97 | 0.0 | 2.0 | 0.00 | 0.32 | 0.32 | 84 | 1006.9 |
| 20260506213003 | 68 | 144 | 0.0 | 2.0 | 0.00 | 0.32 | 0.32 | 83 | 1006.8 |
| 20260506212859 | 69 | 242 | 0.0 | 2.0 | 0.00 | 0.32 | 0.32 | 84 | 1006.8 |
| 20260506212753 | 69 | 267 | 0.0 | 2.0 | 0.00 | 0.32 | 0.32 | 84 | 1006.8 |
| 20260506212647 | 69 | 244 | 0.0 | 2.0 | 0.00 | 0.32 | 0.32 | 85 | 1006.8 |
| 20260506212541 | 69 | 130 | 0.0 | 2.0 | 0.00 | 0.32 | 0.32 | 86 | 1006.9 |
| 20260506212220 | 68 | 155 | 0.0 | 5.0 | 0.00 | 0.32 | 0.32 | 85 | 1006.8 |
| 20260506212118 | 69 | 175 | 0.0 | 5.0 | 0.00 | 0.32 | 0.32 | 85 | 1006.8 |
| 20260506211755 | 68 | 136 | 0.0 | 5.0 | 0.00 | 0.32 | 0.32 | 85 | 1006.8 |
| 20260506211653 | 69 | 134 | 0.0 | 5.0 | 0.00 | 0.32 | 0.32 | 86 | 1006.7 |
| 20260506211547 | 69 | 248 | 0.0 | 5.0 | 0.00 | 0.32 | 0.32 | 86 | 1006.7 |
| 20260506211442 | 69 | 158 | 0.0 | 5.0 | 0.00 | 0.32 | 0.32 | 86 | 1006.8 |
| 20260506211337 | 69 | 19 | 0.0 | 5.0 | 0.00 | 0.32 | 0.32 | 86 | 1006.7 |
| 20260506211235 | 68 | 46 | 0.0 | 5.0 | 0.00 | 0.32 | 0.32 | 85 | 1006.7 |
| 20260506211128 | 69 | 28 | 0.0 | 5.0 | 0.00 | 0.32 | 0.32 | 85 | 1006.7 |
| 20260506211023 | 68 | 109 | 0.0 | 5.0 | 0.00 | 0.32 | 0.32 | 85 | 1006.7 |
| 20260506210919 | 69 | 108 | 0.0 | 5.0 | 0.00 | 0.32 | 0.32 | 85 | 1006.7 |
| 20260506210811 | 69 | 132 | 0.0 | 5.0 | 0.00 | 0.32 | 0.32 | 85 | 1006.8 |
| 20260506210705 | 68 | 117 | 0.0 | 5.0 | 0.00 | 0.32 | 0.32 | 84 | 1006.8 |
| 20260506210600 | 68 | 111 | 0.0 | 5.0 | 0.00 | 0.32 | 0.32 | 84 | 1006.8 |
| 20260506210454 | 68 | 86 | 0.0 | 5.0 | 0.00 | 0.32 | 0.32 | 85 | 1006.8 |
| 20260506210351 | 68 | 165 | 0.0 | 5.0 | 0.00 | 0.32 | 0.32 | 85 | 1006.7 |
| 20260506210247 | 69 | 324 | 0.0 | 3.0 | 0.00 | 0.32 | 0.32 | 85 | 1006.7 |
| 20260506210140 | 69 | 142 | 0.0 | 3.0 | 0.00 | 0.32 | 0.32 | 85 | 1006.7 |
| 20260506210036 | 68 | 134 | 0.0 | 3.0 | 0.00 | 0.32 | 0.32 | 85 | 1006.7 |
| 20260506205934 | 68 | 281 | 0.0 | 3.0 | 0.00 | 0.32 | 0.32 | 85 | 1006.7 |
| 20260506205832 | 68 | 106 | 0.0 | 3.0 | 0.00 | 0.32 | 0.32 | 85 | 1006.6 |
| 20260506205724 | 68 | 105 | 0.0 | 3.0 | 0.00 | 0.32 | 0.32 | 85 | 1006.6 |
| 20260506205618 | 68 | 113 | 0.0 | 3.0 | 0.00 | 0.32 | 0.32 | 84 | 1006.6 |
| 20260506205513 | 68 | 113 | 0.0 | 3.0 | 0.00 | 0.32 | 0.32 | 84 | 1006.6 |
| 20260506205411 | 68 | 132 | 0.0 | 3.0 | 0.00 | 0.32 | 0.32 | 84 | 1006.6 |
| 20260506205309 | 68 | 0 | 0.0 | 5.0 | 0.00 | 0.32 | 0.32 | 85 | 1006.7 |
| 20260506205201 | 68 | 103 | 0.0 | 5.0 | 0.00 | 0.32 | 0.32 | 85 | 1006.7 |
| 20260506205059 | 68 | 209 | 0.0 | 5.0 | 0.00 | 0.32 | 0.32 | 85 | 1006.7 |
| 20260506204951 | 68 | 157 | 1.0 | 5.0 | 0.00 | 0.32 | 0.32 | 84 | 1006.7 |
| 20260506204845 | 68 | 175 | 1.0 | 5.0 | 0.00 | 0.32 | 0.32 | 85 | 1006.7 |
| 20260506204739 | 68 | 192 | 1.0 | 5.0 | 0.00 | 0.32 | 0.32 | 85 | 1006.7 |
| 20260506204635 | 68 | 136 | 1.0 | 5.0 | 0.00 | 0.32 | 0.32 | 84 | 1006.7 |
| 20260506204531 | 68 | 208 | 0.0 | 5.0 | 0.00 | 0.32 | 0.32 | 84 | 1006.7 |
| 20260506204427 | 68 | 230 | 0.0 | 5.0 | 0.00 | 0.32 | 0.32 | 84 | 1006.7 |
| 20260506204320 | 68 | 242 | 0.0 | 5.0 | 0.00 | 0.32 | 0.32 | 84 | 1006.6 |
| 20260506204215 | 68 | 163 | 0.0 | 6.0 | 0.00 | 0.32 | 0.32 | 84 | 1006.6 |
| 20260506204114 | 68 | 141 | 0.0 | 6.0 | 0.00 | 0.32 | 0.32 | 84 | 1006.5 |
| 20260506204011 | 68 | 211 | 0.0 | 6.0 | 0.00 | 0.32 | 0.32 | 84 | 1006.4 |
| 20260506203905 | 68 | 180 | 0.0 | 6.0 | 0.00 | 0.32 | 0.32 | 84 | 1006.4 |
| 20260506203758 | 68 | 114 | 0.0 | 6.0 | 0.00 | 0.32 | 0.32 | 84 | 1006.4 |
| 20260506203655 | 68 | 193 | 0.0 | 6.0 | 0.00 | 0.32 | 0.32 | 85 | 1006.5 |
| 20260506203553 | 68 | 214 | 0.0 | 6.0 | 0.00 | 0.32 | 0.32 | 84 | 1006.5 |
| 20260506203446 | 68 | 148 | 0.0 | 6.0 | 0.00 | 0.32 | 0.32 | 84 | 1006.5 |
| 20260506203344 | 68 | 199 | 0.0 | 6.0 | 0.00 | 0.32 | 0.32 | 84 | 1006.5 |
| 20260506203013 | 68 | 200 | 0.0 | 6.0 | 0.00 | 0.32 | 0.32 | 84 | 1006.4 |
| 20260506202906 | 68 | 118 | 0.0 | 6.0 | 0.00 | 0.32 | 0.32 | 84 | 1006.5 |
| 20260506202804 | 68 | 76 | 0.0 | 6.0 | 0.00 | 0.32 | 0.32 | 84 | 1006.5 |
| 20260506202657 | 68 | 117 | 0.0 | 6.0 | 0.00 | 0.32 | 0.32 | 83 | 1006.5 |
| 20260506202552 | 68 | 128 | 0.0 | 6.0 | 0.00 | 0.32 | 0.32 | 83 | 1006.5 |
| 20260506202445 | 68 | 221 | 0.0 | 6.0 | 0.00 | 0.32 | 0.32 | 83 | 1006.5 |
| 20260506202338 | 68 | 218 | 0.0 | 6.0 | 0.00 | 0.32 | 0.32 | 85 | 1006.4 |
| 20260506202233 | 68 | 72 | 0.0 | 3.0 | 0.00 | 0.32 | 0.32 | 85 | 1006.5 |
| 20260506202130 | 68 | 31 | 0.0 | 3.0 | 0.00 | 0.32 | 0.32 | 85 | 1006.5 |
| 20260506202029 | 68 | 163 | 0.0 | 3.0 | 0.00 | 0.32 | 0.32 | 84 | 1006.6 |
| 20260506201705 | 68 | 234 | 1.0 | 5.0 | 0.00 | 0.32 | 0.32 | 84 | 1006.4 |
| 20260506201600 | 68 | 238 | 0.0 | 5.0 | 0.00 | 0.32 | 0.32 | 84 | 1006.5 |
| 20260506201453 | 68 | 144 | 0.0 | 5.0 | 0.00 | 0.32 | 0.32 | 84 | 1006.5 |
| 20260506201350 | 68 | 249 | 1.0 | 5.0 | 0.00 | 0.32 | 0.32 | 83 | 1006.5 |
| 20260506201244 | 68 | 94 | 1.0 | 5.0 | 0.00 | 0.32 | 0.32 | 83 | 1006.4 |
| 20260506201136 | 68 | 184 | 1.0 | 5.0 | 0.00 | 0.32 | 0.32 | 84 | 1006.3 |
| 20260506201030 | 68 | 121 | 0.0 | 5.0 | 0.00 | 0.32 | 0.32 | 84 | 1006.4 |
| 20260506200923 | 68 | 242 | 0.0 | 5.0 | 0.00 | 0.32 | 0.32 | 84 | 1006.4 |
| 20260506200817 | 68 | 150 | 0.0 | 5.0 | 0.00 | 0.32 | 0.32 | 84 | 1006.5 |
| 20260506200710 | 68 | 201 | 1.0 | 5.0 | 0.00 | 0.32 | 0.32 | 84 | 1006.5 |
| 20260506200605 | 68 | 178 | 1.0 | 5.0 | 0.00 | 0.32 | 0.32 | 84 | 1006.4 |
| 20260506200502 | 68 | 131 | 1.0 | 5.0 | 0.00 | 0.32 | 0.32 | 84 | 1006.4 |
| 20260506200357 | 68 | 254 | 0.0 | 5.0 | 0.00 | 0.32 | 0.32 | 84 | 1006.4 |
| 20260506200252 | 68 | 238 | 0.0 | 5.0 | 0.00 | 0.32 | 0.32 | 85 | 1006.4 |
| 20260506200145 | 68 | 156 | 0.0 | 5.0 | 0.00 | 0.32 | 0.32 | 85 | 1006.5 |
| 20260506200037 | 68 | 110 | 0.0 | 5.0 | 0.00 | 0.32 | 0.32 | 86 | 1006.5 |
| 20260506195931 | 68 | 219 | 0.0 | 5.0 | 0.00 | 0.32 | 0.32 | 86 | 1006.6 |
| 20260506195829 | 68 | 0 | 1.0 | 5.0 | 0.00 | 0.32 | 0.32 | 85 | 1006.4 |
| 20260506195724 | 68 | 219 | 0.0 | 5.0 | 0.00 | 0.32 | 0.32 | 85 | 1006.4 |
| 20260506195405 | 68 | 66 | 0.0 | 6.0 | 0.00 | 0.32 | 0.32 | 86 | 1006.5 |
| 20260506195300 | 68 | 137 | 0.0 | 6.0 | 0.00 | 0.32 | 0.32 | 85 | 1006.6 |
| 20260506195155 | 68 | 187 | 1.0 | 6.0 | 0.00 | 0.32 | 0.32 | 85 | 1006.7 |
| 20260506195048 | 68 | 209 | 1.0 | 6.0 | 0.00 | 0.32 | 0.32 | 85 | 1006.6 |
| 20260506194942 | 68 | 131 | 1.0 | 6.0 | 0.00 | 0.32 | 0.32 | 85 | 1006.6 |
| 20260506194839 | 68 | 188 | 1.0 | 6.0 | 0.00 | 0.32 | 0.32 | 85 | 1006.6 |
| 20260506194735 | 68 | 263 | 1.0 | 6.0 | 0.00 | 0.32 | 0.32 | 85 | 1006.6 |
| 20260506194629 | 67 | 319 | 1.0 | 6.0 | 0.00 | 0.32 | 0.32 | 86 | 1006.7 |
| 20260506194522 | 67 | 63 | 1.0 | 6.0 | 0.00 | 0.32 | 0.32 | 86 | 1006.6 |
| 20260506194417 | 67 | 193 | 1.0 | 6.0 | 0.00 | 0.32 | 0.32 | 86 | 1006.7 |
| 20260506194310 | 67 | 279 | 1.0 | 6.0 | 0.00 | 0.32 | 0.32 | 85 | 1006.7 |
| 20260506194205 | 67 | 186 | 1.0 | 6.0 | 0.00 | 0.32 | 0.32 | 86 | 1006.8 |
| 20260506194100 | 67 | 236 | 0.0 | 6.0 | 0.00 | 0.32 | 0.32 | 86 | 1006.7 |
| 20260506193737 | 67 | 113 | 0.0 | 6.0 | 0.00 | 0.32 | 0.32 | 86 | 1006.7 |
| 20260506193634 | 67 | 183 | 0.0 | 3.0 | 0.00 | 0.32 | 0.32 | 86 | 1006.7 |
| 20260506193527 | 67 | 107 | 1.0 | 3.0 | 0.00 | 0.32 | 0.32 | 86 | 1006.7 |
| 20260506193207 | 67 | 297 | 0.0 | 3.0 | 0.00 | 0.32 | 0.32 | 86 | 1006.7 |
| 20260506193100 | 67 | 138 | 0.0 | 3.0 | 0.00 | 0.32 | 0.32 | 86 | 1006.7 |
| 20260506192957 | 67 | 167 | 0.0 | 3.0 | 0.00 | 0.32 | 0.32 | 86 | 1006.7 |
| 20260506192850 | 67 | 154 | 0.0 | 9.0 | 0.00 | 0.32 | 0.32 | 86 | 1006.8 |
| 20260506192527 | 67 | 147 | 0.0 | 9.0 | 0.00 | 0.32 | 0.32 | 86 | 1006.8 |
| 20260506192203 | 67 | 236 | 1.0 | 9.0 | 0.00 | 0.32 | 0.32 | 87 | 1006.9 |
| 20260506192056 | 67 | 134 | 1.0 | 9.0 | 0.00 | 0.32 | 0.32 | 87 | 1007.0 |
| 20260506191952 | 67 | 112 | 1.0 | 9.0 | 0.00 | 0.32 | 0.32 | 87 | 1006.9 |
| 20260506191849 | 67 | 157 | 1.0 | 9.0 | 0.00 | 0.32 | 0.32 | 87 | 1007.0 |
| 20260506191743 | 67 | 201 | 1.0 | 9.0 | 0.00 | 0.32 | 0.32 | 87 | 1006.9 |
| 20260506191419 | 66 | 92 | 1.0 | 9.0 | 0.00 | 0.32 | 0.32 | 87 | 1007.0 |
| 20260506191314 | 66 | 165 | 1.0 | 9.0 | 0.00 | 0.32 | 0.32 | 87 | 1007.0 |
| 20260506190947 | 66 | 105 | 1.0 | 9.0 | 0.00 | 0.32 | 0.32 | 87 | 1007.0 |
| 20260506190844 | 66 | 200 | 1.0 | 5.0 | 0.00 | 0.32 | 0.32 | 87 | 1007.0 |
| 20260506190737 | 66 | 269 | 1.0 | 5.0 | 0.00 | 0.32 | 0.32 | 88 | 1007.0 |
| 20260506190634 | 66 | 140 | 0.0 | 5.0 | 0.00 | 0.32 | 0.32 | 88 | 1007.0 |
| 20260506190053 | 66 | 113 | 0.0 | 4.0 | 0.00 | 0.32 | 0.32 | 88 | 1007.2 |
| 20260506185947 | 66 | 330 | 0.0 | 4.0 | 0.00 | 0.32 | 0.32 | 88 | 1007.3 |
| 20260506185841 | 66 | 167 | 0.0 | 4.0 | 0.00 | 0.32 | 0.32 | 88 | 1007.2 |
| 20260506185736 | 66 | 167 | 0.0 | 4.0 | 0.00 | 0.32 | 0.32 | 88 | 1007.2 |
| 20260506185148 | 66 | 217 | 0.0 | 4.0 | 0.00 | 0.32 | 0.32 | 88 | 1007.1 |
| 20260506185041 | 66 | 173 | 0.0 | 4.0 | 0.00 | 0.32 | 0.32 | 88 | 1007.1 |
| 20260506184938 | 66 | 191 | 0.0 | 4.0 | 0.00 | 0.32 | 0.32 | 88 | 1007.2 |
| 20260506184834 | 66 | 90 | 0.0 | 4.0 | 0.00 | 0.32 | 0.32 | 88 | 1007.3 |
| 20260506184730 | 66 | 235 | 0.0 | 4.0 | 0.00 | 0.32 | 0.32 | 88 | 1007.3 |
| 20260506184627 | 66 | 158 | 0.0 | 4.0 | 0.00 | 0.32 | 0.32 | 88 | 1007.2 |
| 20260506184521 | 66 | 130 | 0.0 | 4.0 | 0.00 | 0.32 | 0.32 | 88 | 1007.2 |
| 20260506184157 | 66 | 355 | 0.0 | 3.0 | 0.00 | 0.32 | 0.32 | 89 | 1007.5 |
| 20260506183834 | 66 | 109 | 1.0 | 7.0 | 0.00 | 0.32 | 0.32 | 88 | 1007.5 |
| 20260506183509 | 66 | 336 | 1.0 | 7.0 | 0.00 | 0.32 | 0.32 | 87 | 1007.3 |
| 20260506183402 | 65 | 236 | 1.0 | 7.0 | 0.00 | 0.32 | 0.32 | 88 | 1007.3 |
| 20260506183037 | 65 | 197 | 1.0 | 7.0 | 0.00 | 0.32 | 0.32 | 88 | 1007.4 |
| 20260506182931 | 65 | 151 | 1.0 | 7.0 | 0.00 | 0.32 | 0.32 | 88 | 1007.4 |
| 20260506182348 | 65 | 171 | 1.0 | 7.0 | 0.00 | 0.32 | 0.32 | 88 | 1007.3 |
| 20260506182022 | 65 | 136 | 1.0 | 7.0 | 0.00 | 0.32 | 0.32 | 88 | 1007.3 |
| 20260506181700 | 65 | 184 | 1.0 | 6.0 | 0.00 | 0.32 | 0.32 | 88 | 1007.1 |
| 20260506181554 | 65 | 280 | 1.0 | 6.0 | 0.00 | 0.32 | 0.32 | 88 | 1007.1 |
| 20260506181447 | 65 | 229 | 1.0 | 6.0 | 0.00 | 0.32 | 0.32 | 88 | 1007.2 |
| 20260506181340 | 65 | 270 | 1.0 | 6.0 | 0.00 | 0.32 | 0.32 | 88 | 1007.2 |
| 20260506181017 | 65 | 213 | 1.0 | 6.0 | 0.00 | 0.32 | 0.32 | 89 | 1007.4 |
| 20260506180913 | 65 | 241 | 1.0 | 6.0 | 0.00 | 0.32 | 0.32 | 89 | 1007.4 |
| 20260506180810 | 65 | 165 | 0.0 | 4.0 | 0.00 | 0.32 | 0.32 | 89 | 1007.3 |
| 20260506180704 | 65 | 199 | 0.0 | 4.0 | 0.00 | 0.32 | 0.32 | 89 | 1007.3 |
| 20260506180601 | 65 | 75 | 0.0 | 4.0 | 0.00 | 0.32 | 0.32 | 89 | 1007.3 |
| 20260506180458 | 65 | 126 | 0.0 | 4.0 | 0.00 | 0.32 | 0.32 | 89 | 1007.4 |
| 20260506175918 | 64 | 126 | 1.0 | 4.0 | 0.00 | 0.32 | 0.32 | 89 | 1007.5 |
| 20260506175814 | 64 | 198 | 1.0 | 4.0 | 0.00 | 0.32 | 0.32 | 89 | 1007.5 |
| 20260506175710 | 64 | 128 | 1.0 | 4.0 | 0.00 | 0.32 | 0.32 | 88 | 1007.4 |
| 20260506175607 | 64 | 198 | 1.0 | 4.0 | 0.00 | 0.32 | 0.32 | 89 | 1007.5 |
| 20260506175503 | 64 | 201 | 1.0 | 3.0 | 0.00 | 0.32 | 0.32 | 89 | 1007.5 |
| 20260506174920 | 64 | 185 | 0.0 | 3.0 | 0.00 | 0.32 | 0.32 | 89 | 1007.5 |
| 20260506174813 | 64 | 156 | 0.0 | 3.0 | 0.00 | 0.32 | 0.32 | 89 | 1007.6 |
| 20260506174453 | 64 | 202 | 0.0 | 5.0 | 0.00 | 0.32 | 0.32 | 89 | 1007.6 |
| 20260506174346 | 64 | 68 | 0.0 | 5.0 | 0.00 | 0.32 | 0.32 | 89 | 1007.5 |
| 20260506174240 | 64 | 278 | 0.0 | 5.0 | 0.00 | 0.32 | 0.32 | 89 | 1007.5 |
| 20260506174134 | 64 | 220 | 0.0 | 5.0 | 0.00 | 0.32 | 0.32 | 89 | 1007.5 |
| 20260506174027 | 64 | 102 | 1.0 | 5.0 | 0.00 | 0.32 | 0.32 | 89 | 1007.5 |
| 20260506173704 | 64 | 180 | 1.0 | 8.0 | 0.00 | 0.32 | 0.32 | 89 | 1007.5 |
| 20260506173600 | 64 | 135 | 1.0 | 8.0 | 0.00 | 0.32 | 0.32 | 89 | 1007.5 |
| 20260506173458 | 64 | 171 | 1.0 | 8.0 | 0.00 | 0.32 | 0.32 | 89 | 1007.5 |
| 20260506173353 | 64 | 336 | 1.0 | 8.0 | 0.00 | 0.32 | 0.32 | 89 | 1007.6 |
| 20260506173251 | 64 | 96 | 1.0 | 8.0 | 0.00 | 0.32 | 0.32 | 89 | 1007.6 |
| 20260506173146 | 64 | 81 | 1.0 | 8.0 | 0.00 | 0.32 | 0.32 | 89 | 1007.6 |
| 20260506173040 | 64 | 202 | 1.0 | 8.0 | 0.00 | 0.32 | 0.32 | 89 | 1007.6 |
| 20260506172935 | 64 | 205 | 1.0 | 8.0 | 0.00 | 0.32 | 0.32 | 89 | 1007.6 |
| 20260506172828 | 64 | 62 | 1.0 | 8.0 | 0.00 | 0.32 | 0.32 | 90 | 1007.6 |
| 20260506172724 | 64 | 305 | 1.0 | 10.0 | 0.00 | 0.32 | 0.32 | 90 | 1007.7 |
| 20260506172617 | 64 | 193 | 1.0 | 10.0 | 0.00 | 0.32 | 0.32 | 90 | 1007.6 |
| 20260506172512 | 64 | 161 | 1.0 | 10.0 | 0.00 | 0.32 | 0.32 | 89 | 1007.6 |
| 20260506172405 | 64 | 94 | 1.0 | 10.0 | 0.00 | 0.32 | 0.32 | 89 | 1007.7 |
| 20260506172300 | 64 | 294 | 1.0 | 10.0 | 0.00 | 0.32 | 0.32 | 89 | 1007.7 |
| 20260506172154 | 64 | 195 | 1.0 | 10.0 | 0.00 | 0.32 | 0.32 | 89 | 1007.7 |
| 20260506172051 | 64 | 68 | 1.0 | 10.0 | 0.00 | 0.32 | 0.32 | 89 | 1007.7 |
| 20260506171949 | 64 | 169 | 1.0 | 10.0 | 0.00 | 0.32 | 0.32 | 89 | 1007.7 |
| 20260506171627 | 63 | 337 | 1.0 | 10.0 | 0.00 | 0.32 | 0.32 | 89 | 1007.7 |
| 20260506171521 | 64 | 62 | 1.0 | 10.0 | 0.00 | 0.32 | 0.32 | 89 | 1007.7 |
| 20260506171414 | 64 | 63 | 1.0 | 10.0 | 0.00 | 0.32 | 0.32 | 89 | 1007.7 |
| 20260506171309 | 64 | 76 | 1.0 | 10.0 | 0.00 | 0.32 | 0.32 | 89 | 1007.8 |
| 20260506171204 | 64 | 88 | 1.0 | 10.0 | 0.00 | 0.32 | 0.32 | 90 | 1007.8 |
| 20260506171057 | 64 | 219 | 1.0 | 10.0 | 0.00 | 0.32 | 0.32 | 90 | 1007.8 |
| 20260506170955 | 64 | 294 | 1.0 | 10.0 | 0.00 | 0.32 | 0.32 | 90 | 1007.8 |
| 20260506170851 | 64 | 355 | 1.0 | 10.0 | 0.00 | 0.32 | 0.32 | 90 | 1007.7 |
| 20260506170528 | 64 | 148 | 1.0 | 7.0 | 0.00 | 0.32 | 0.32 | 90 | 1007.6 |
| 20260506170423 | 64 | 192 | 0.0 | 7.0 | 0.00 | 0.32 | 0.32 | 90 | 1007.7 |
| 20260506170318 | 64 | 75 | 0.0 | 7.0 | 0.00 | 0.32 | 0.32 | 91 | 1007.7 |
| 20260506170212 | 64 | 59 | 0.0 | 7.0 | 0.00 | 0.32 | 0.32 | 91 | 1007.7 |
| 20260506165847 | 64 | 188 | 0.0 | 7.0 | 0.00 | 0.32 | 0.32 | 90 | 1007.7 |
| 20260506165741 | 64 | 182 | 0.0 | 7.0 | 0.00 | 0.32 | 0.32 | 90 | 1007.7 |
| 20260506165634 | 64 | 99 | 0.0 | 7.0 | 0.00 | 0.32 | 0.32 | 90 | 1007.7 |
| 20260506165531 | 64 | 219 | 0.0 | 7.0 | 0.00 | 0.32 | 0.32 | 90 | 1007.8 |
| 20260506165206 | 64 | 140 | 1.0 | 7.0 | 0.00 | 0.32 | 0.32 | 91 | 1007.8 |
| 20260506165103 | 64 | 220 | 0.0 | 7.0 | 0.00 | 0.32 | 0.32 | 91 | 1007.8 |
| 20260506164957 | 64 | 207 | 1.0 | 3.0 | 0.00 | 0.32 | 0.32 | 91 | 1007.8 |
| 20260506164849 | 64 | 142 | 1.0 | 3.0 | 0.00 | 0.32 | 0.32 | 91 | 1007.9 |
| 20260506164744 | 64 | 231 | 0.0 | 3.0 | 0.00 | 0.32 | 0.32 | 90 | 1007.8 |
| 20260506164642 | 64 | 30 | 1.0 | 6.0 | 0.00 | 0.32 | 0.32 | 90 | 1007.7 |
| 20260506164322 | 64 | 273 | 1.0 | 6.0 | 0.00 | 0.32 | 0.32 | 91 | 1007.7 |
| 20260506164217 | 63 | 195 | 1.0 | 6.0 | 0.00 | 0.32 | 0.32 | 91 | 1007.8 |
| 20260506164109 | 63 | 102 | 1.0 | 6.0 | 0.00 | 0.32 | 0.32 | 91 | 1007.8 |
| 20260506164008 | 63 | 158 | 1.0 | 6.0 | 0.00 | 0.32 | 0.32 | 91 | 1007.8 |
| 20260506163646 | 63 | 148 | 1.0 | 7.0 | 0.00 | 0.32 | 0.32 | 91 | 1007.8 |
| 20260506163542 | 63 | 82 | 1.0 | 7.0 | 0.00 | 0.32 | 0.32 | 91 | 1007.8 |
| 20260506163440 | 63 | 111 | 1.0 | 7.0 | 0.00 | 0.32 | 0.32 | 91 | 1007.8 |
| 20260506162852 | 63 | 161 | 1.0 | 7.0 | 0.00 | 0.32 | 0.32 | 92 | 1007.8 |
| 20260506162750 | 63 | 328 | 1.0 | 7.0 | 0.00 | 0.32 | 0.32 | 93 | 1007.8 |
| 20260506162647 | 63 | 351 | 1.0 | 7.0 | 0.00 | 0.32 | 0.32 | 93 | 1008.0 |
| 20260506162323 | 63 | 115 | 0.0 | 7.0 | 0.00 | 0.32 | 0.32 | 93 | 1008.0 |
| 20260506162219 | 63 | 97 | 1.0 | 7.0 | 0.00 | 0.32 | 0.32 | 93 | 1008.0 |
| 20260506162114 | 63 | 261 | 1.0 | 7.0 | 0.00 | 0.32 | 0.32 | 93 | 1008.0 |
| 20260506162011 | 63 | 274 | 1.0 | 7.0 | 0.00 | 0.32 | 0.32 | 93 | 1007.9 |
| 20260506161904 | 63 | 240 | 1.0 | 7.0 | 0.00 | 0.32 | 0.32 | 93 | 1007.9 |
| 20260506161800 | 63 | 245 | 1.0 | 7.0 | 0.00 | 0.32 | 0.32 | 93 | 1008.0 |
| 20260506161657 | 63 | 126 | 1.0 | 6.0 | 0.00 | 0.32 | 0.32 | 93 | 1007.9 |
| 20260506161552 | 63 | 72 | 1.0 | 6.0 | 0.00 | 0.32 | 0.32 | 93 | 1007.9 |
| 20260506161450 | 63 | 221 | 1.0 | 6.0 | 0.00 | 0.32 | 0.32 | 93 | 1007.9 |
| 20260506161344 | 62 | 217 | 1.0 | 6.0 | 0.00 | 0.32 | 0.32 | 94 | 1007.9 |
| 20260506161020 | 62 | 205 | 1.0 | 6.0 | 0.00 | 0.32 | 0.32 | 94 | 1007.9 |
| 20260506160917 | 62 | 185 | 0.0 | 6.0 | 0.00 | 0.32 | 0.32 | 94 | 1007.9 |
| 20260506160810 | 62 | 130 | 1.0 | 5.0 | 0.00 | 0.32 | 0.32 | 94 | 1007.9 |
| 20260506160705 | 62 | 323 | 1.0 | 5.0 | 0.00 | 0.32 | 0.32 | 94 | 1007.9 |
| 20260506160602 | 62 | 126 | 1.0 | 5.0 | 0.00 | 0.32 | 0.32 | 94 | 1007.9 |
| 20260506160234 | 62 | 198 | 1.0 | 5.0 | 0.00 | 0.32 | 0.32 | 93 | 1007.9 |
| 20260506160130 | 62 | 118 | 1.0 | 5.0 | 0.00 | 0.32 | 0.32 | 93 | 1007.9 |
| 20260506160027 | 62 | 36 | 1.0 | 5.0 | 0.00 | 0.32 | 0.32 | 93 | 1008.0 |
| 20260506155924 | 62 | 196 | 1.0 | 5.0 | 0.00 | 0.32 | 0.32 | 93 | 1007.9 |
| 20260506155819 | 62 | 203 | 1.0 | 5.0 | 0.00 | 0.32 | 0.32 | 93 | 1007.9 |
| 20260506155712 | 62 | 231 | 1.0 | 5.0 | 0.00 | 0.32 | 0.32 | 93 | 1008.0 |
| 20260506155605 | 62 | 307 | 1.0 | 5.0 | 0.00 | 0.32 | 0.32 | 93 | 1008.1 |
| 20260506155458 | 62 | 155 | 1.0 | 5.0 | 0.00 | 0.32 | 0.32 | 93 | 1008.1 |
| 20260506155355 | 62 | 22 | 1.0 | 5.0 | 0.00 | 0.32 | 0.32 | 93 | 1008.0 |
| 20260506155251 | 62 | 126 | 1.0 | 5.0 | 0.00 | 0.32 | 0.32 | 93 | 1008.0 |
| 20260506155146 | 62 | 231 | 1.0 | 8.0 | 0.00 | 0.32 | 0.32 | 93 | 1007.9 |
| 20260506155040 | 62 | 158 | 1.0 | 8.0 | 0.00 | 0.32 | 0.32 | 93 | 1007.9 |
| 20260506154936 | 62 | 134 | 1.0 | 8.0 | 0.00 | 0.32 | 0.32 | 93 | 1007.9 |
| 20260506154830 | 62 | 61 | 1.0 | 8.0 | 0.00 | 0.32 | 0.32 | 93 | 1007.9 |
| 20260506154726 | 62 | 190 | 1.0 | 8.0 | 0.00 | 0.32 | 0.32 | 93 | 1007.9 |
| 20260506154619 | 62 | 169 | 1.0 | 8.0 | 0.00 | 0.32 | 0.32 | 93 | 1007.9 |
| 20260506154513 | 62 | 115 | 1.0 | 8.0 | 0.00 | 0.32 | 0.32 | 93 | 1007.9 |
| 20260506154408 | 62 | 200 | 1.0 | 8.0 | 0.00 | 0.32 | 0.32 | 93 | 1007.9 |
| 20260506154304 | 62 | 148 | 1.0 | 8.0 | 0.00 | 0.32 | 0.32 | 93 | 1008.0 |
| 20260506154157 | 62 | 286 | 1.0 | 8.0 | 0.00 | 0.32 | 0.32 | 94 | 1008.0 |
| 20260506153835 | 62 | 215 | 1.0 | 8.0 | 0.00 | 0.32 | 0.32 | 94 | 1008.0 |
| 20260506153730 | 62 | 181 | 1.0 | 8.0 | 0.00 | 0.32 | 0.32 | 94 | 1008.0 |
| 20260506153625 | 62 | 173 | 1.0 | 8.0 | 0.00 | 0.32 | 0.32 | 94 | 1008.0 |
| 20260506153519 | 62 | 124 | 1.0 | 8.0 | 0.00 | 0.32 | 0.32 | 94 | 1008.0 |
| 20260506153414 | 62 | 148 | 1.0 | 8.0 | 0.00 | 0.32 | 0.32 | 94 | 1008.0 |
| 20260506153309 | 62 | 192 | 1.0 | 8.0 | 0.00 | 0.32 | 0.32 | 94 | 1008.0 |
| 20260506153201 | 62 | 180 | 1.0 | 6.0 | 0.00 | 0.32 | 0.32 | 94 | 1008.0 |
| 20260506153058 | 62 | 157 | 1.0 | 6.0 | 0.00 | 0.32 | 0.32 | 94 | 1008.0 |
| 20260506152733 | 62 | 98 | 1.0 | 6.0 | 0.00 | 0.32 | 0.32 | 95 | 1008.0 |
| 20260506152141 | 62 | 100 | 1.0 | 5.0 | 0.00 | 0.32 | 0.32 | 95 | 1008.0 |
| 20260506152034 | 62 | 80 | 1.0 | 5.0 | 0.00 | 0.32 | 0.32 | 94 | 1008.1 |
| 20260506151930 | 61 | 82 | 0.0 | 5.0 | 0.00 | 0.32 | 0.32 | 94 | 1008.2 |
| 20260506151827 | 61 | 65 | 0.0 | 5.0 | 0.00 | 0.32 | 0.32 | 94 | 1008.2 |
| 20260506151722 | 61 | 171 | 0.0 | 5.0 | 0.00 | 0.32 | 0.32 | 94 | 1008.2 |
| 20260506151617 | 61 | 66 | 0.0 | 5.0 | 0.00 | 0.32 | 0.32 | 94 | 1008.2 |
| 20260506151510 | 61 | 132 | 0.0 | 5.0 | 0.00 | 0.32 | 0.32 | 94 | 1008.2 |
| 20260506151404 | 61 | 40 | 0.0 | 5.0 | 0.00 | 0.32 | 0.32 | 94 | 1008.3 |
| 20260506151255 | 61 | 212 | 0.0 | 8.0 | 0.00 | 0.32 | 0.32 | 94 | 1008.3 |
| 20260506151150 | 61 | 269 | 0.0 | 8.0 | 0.00 | 0.32 | 0.32 | 94 | 1008.2 |
| 20260506151043 | 61 | 136 | 0.0 | 8.0 | 0.00 | 0.32 | 0.32 | 94 | 1008.2 |
| 20260506150940 | 61 | 180 | 0.0 | 8.0 | 0.00 | 0.32 | 0.32 | 94 | 1008.0 |
| 20260506150838 | 61 | 111 | 0.0 | 8.0 | 0.00 | 0.32 | 0.32 | 94 | 1008.0 |
| 20260506150736 | 61 | 147 | 0.0 | 8.0 | 0.00 | 0.32 | 0.32 | 94 | 1007.9 |
| 20260506150410 | 61 | 93 | 1.0 | 8.0 | 0.00 | 0.32 | 0.32 | 94 | 1007.9 |
| 20260506150309 | 61 | 88 | 1.0 | 8.0 | 0.00 | 0.32 | 0.32 | 94 | 1007.9 |
| 20260506150201 | 61 | 190 | 1.0 | 8.0 | 0.00 | 0.32 | 0.32 | 94 | 1007.9 |
| 20260506150059 | 61 | 73 | 1.0 | 8.0 | 0.00 | 0.32 | 0.32 | 94 | 1007.9 |
| 20260506145953 | 61 | 5 | 1.0 | 8.0 | 0.00 | 0.32 | 0.32 | 94 | 1008.1 |
| 20260506145847 | 60 | 292 | 1.0 | 8.0 | 0.00 | 0.32 | 0.32 | 93 | 1008.2 |
| 20260506145740 | 60 | 131 | 1.0 | 8.0 | 0.00 | 0.31 | 0.32 | 93 | 1008.3 |
| 20260506145410 | 60 | 244 | 0.0 | 8.0 | 0.00 | 0.31 | 0.31 | 93 | 1008.5 |
| 20260506145308 | 60 | 338 | 0.0 | 8.0 | 0.00 | 0.31 | 0.31 | 93 | 1008.5 |
| 20260506145202 | 60 | 201 | 0.0 | 8.0 | 0.00 | 0.31 | 0.31 | 93 | 1008.4 |
| 20260506145055 | 60 | 161 | 0.0 | 8.0 | 0.00 | 0.31 | 0.31 | 93 | 1008.4 |
| 20260506144732 | 60 | 174 | 1.0 | 8.0 | 0.00 | 0.31 | 0.31 | 93 | 1008.3 |
| 20260506144629 | 60 | 166 | 1.0 | 8.0 | 0.04 | 0.31 | 0.31 | 93 | 1008.3 |
| 20260506144522 | 60 | 178 | 1.0 | 8.0 | 0.04 | 0.31 | 0.31 | 93 | 1008.3 |
| 20260506144417 | 60 | 311 | 0.0 | 8.0 | 0.04 | 0.31 | 0.31 | 93 | 1008.4 |
| 20260506144312 | 60 | 150 | 0.0 | 8.0 | 0.05 | 0.31 | 0.31 | 93 | 1008.4 |
| 20260506144205 | 60 | 158 | 0.0 | 8.0 | 0.05 | 0.31 | 0.31 | 93 | 1008.5 |
| 20260506144058 | 60 | 120 | 0.0 | 8.0 | 0.06 | 0.31 | 0.31 | 93 | 1008.5 |
| 20260506143955 | 60 | 137 | 0.0 | 8.0 | 0.06 | 0.31 | 0.31 | 93 | 1008.6 |
| 20260506143848 | 60 | 290 | 0.0 | 2.0 | 0.06 | 0.31 | 0.31 | 93 | 1008.6 |
| 20260506143744 | 60 | 133 | 0.0 | 2.0 | 0.08 | 0.31 | 0.31 | 93 | 1008.5 |
| 20260506143639 | 60 | 98 | 0.0 | 4.0 | 0.09 | 0.31 | 0.31 | 93 | 1008.5 |
| 20260506143532 | 61 | 169 | 0.0 | 4.0 | 0.12 | 0.31 | 0.31 | 93 | 1008.5 |
| 20260506143430 | 60 | 122 | 0.0 | 4.0 | 0.15 | 0.31 | 0.31 | 93 | 1008.5 |
| 20260506143326 | 60 | 36 | 0.0 | 4.0 | 0.15 | 0.31 | 0.31 | 93 | 1008.5 |
| 20260506143223 | 60 | 207 | 0.0 | 4.0 | 0.15 | 0.29 | 0.31 | 93 | 1008.6 |
| 20260506143121 | 60 | 207 | 0.0 | 4.0 | 0.15 | 0.29 | 0.31 | 93 | 1008.6 |
| 20260506142754 | 61 | 136 | 0.0 | 4.0 | 0.08 | 0.29 | 0.30 | 93 | 1008.8 |
| 20260506142651 | 60 | 109 | 0.0 | 4.0 | 0.08 | 0.29 | 0.30 | 93 | 1008.8 |
| 20260506142327 | 61 | 331 | 0.0 | 4.0 | 0.10 | 0.29 | 0.28 | 93 | 1008.9 |
| 20260506142223 | 61 | 155 | 0.0 | 4.0 | 0.10 | 0.29 | 0.28 | 93 | 1008.9 |
| 20260506142116 | 61 | 169 | 0.0 | 4.0 | 0.10 | 0.29 | 0.28 | 93 | 1008.9 |
| 20260506142009 | 61 | 167 | 0.0 | 4.0 | 0.10 | 0.27 | 0.28 | 93 | 1008.9 |
| 20260506141908 | 61 | 184 | 0.0 | 4.0 | 0.00 | 0.27 | 0.27 | 93 | 1008.9 |
| 20260506141804 | 61 | 121 | 0.0 | 4.0 | 0.00 | 0.27 | 0.27 | 93 | 1008.8 |
| 20260506141440 | 61 | 217 | 0.0 | 0.0 | 0.00 | 0.26 | 0.27 | 93 | 1008.8 |
| 20260506141338 | 61 | 217 | 0.0 | 1.0 | 0.00 | 0.26 | 0.27 | 93 | 1008.9 |
| 20260506141236 | 60 | 217 | 0.0 | 1.0 | 0.00 | 0.26 | 0.27 | 93 | 1008.8 |
| 20260506141132 | 61 | 198 | 0.0 | 1.0 | 0.00 | 0.26 | 0.27 | 93 | 1008.8 |
| 20260506141029 | 61 | 198 | 0.0 | 1.0 | 0.00 | 0.26 | 0.27 | 93 | 1008.8 |
| 20260506140708 | 61 | 172 | 0.0 | 1.0 | 0.04 | 0.26 | 0.27 | 93 | 1008.9 |
| 20260506140601 | 61 | 175 | 0.0 | 1.0 | 0.04 | 0.26 | 0.27 | 93 | 1008.9 |
| 20260506140456 | 60 | 74 | 0.0 | 1.0 | 0.04 | 0.26 | 0.27 | 93 | 1008.9 |
| 20260506140352 | 60 | 140 | 0.0 | 1.0 | 0.05 | 0.26 | 0.27 | 93 | 1008.9 |
| 20260506140248 | 60 | 202 | 0.0 | 1.0 | 0.05 | 0.26 | 0.27 | 93 | 1008.8 |
| 20260506140146 | 60 | 148 | 0.0 | 1.0 | 0.06 | 0.26 | 0.27 | 93 | 1008.9 |
| 20260506140042 | 60 | 132 | 0.0 | 1.0 | 0.06 | 0.26 | 0.27 | 93 | 1008.8 |
| 20260506135939 | 60 | 121 | 0.0 | 2.0 | 0.06 | 0.26 | 0.27 | 93 | 1008.9 |
| 20260506135833 | 60 | 121 | 0.0 | 2.0 | 0.06 | 0.26 | 0.27 | 93 | 1008.8 |
| 20260506135726 | 60 | 136 | 0.0 | 2.0 | 0.06 | 0.26 | 0.27 | 93 | 1008.7 |
| 20260506135624 | 60 | 136 | 0.0 | 2.0 | 0.06 | 0.26 | 0.27 | 93 | 1008.7 |
| 20260506135521 | 60 | 118 | 0.0 | 2.0 | 0.06 | 0.26 | 0.27 | 93 | 1008.7 |
| 20260506135415 | 60 | 165 | 0.0 | 2.0 | 0.06 | 0.26 | 0.27 | 93 | 1008.7 |
| 20260506135310 | 60 | 165 | 0.0 | 2.0 | 0.06 | 0.26 | 0.27 | 92 | 1008.8 |
| 20260506135204 | 60 | 165 | 0.0 | 2.0 | 0.06 | 0.26 | 0.27 | 92 | 1008.7 |
| 20260506135100 | 60 | 171 | 0.0 | 2.0 | 0.06 | 0.26 | 0.26 | 92 | 1008.7 |
| 20260506134956 | 60 | 72 | 0.0 | 2.0 | 0.06 | 0.26 | 0.26 | 92 | 1008.7 |
| 20260506134852 | 60 | 303 | 0.0 | 2.0 | 0.08 | 0.26 | 0.26 | 92 | 1008.7 |
| 20260506134745 | 60 | 303 | 0.0 | 2.0 | 0.10 | 0.26 | 0.26 | 92 | 1008.7 |
| 20260506134643 | 60 | 303 | 0.0 | 2.0 | 0.12 | 0.26 | 0.26 | 92 | 1008.8 |
| 20260506134318 | 60 | 134 | 0.0 | 2.0 | 0.13 | 0.24 | 0.26 | 92 | 1008.5 |
| 20260506134211 | 60 | 114 | 0.0 | 2.0 | 0.13 | 0.24 | 0.26 | 92 | 1008.5 |
| 20260506134106 | 60 | 114 | 0.0 | 2.0 | 0.13 | 0.24 | 0.25 | 92 | 1008.5 |
| 20260506134001 | 60 | 130 | 0.0 | 0.0 | 0.20 | 0.24 | 0.25 | 92 | 1008.5 |
| 20260506133853 | 60 | 130 | 0.0 | 0.0 | 0.26 | 0.24 | 0.25 | 92 | 1008.6 |
| 20260506133746 | 60 | 130 | 0.0 | 2.0 | 0.26 | 0.24 | 0.25 | 92 | 1008.5 |
| 20260506133640 | 60 | 153 | 0.0 | 2.0 | 0.06 | 0.24 | 0.24 | 92 | 1008.6 |
| 20260506133059 | 60 | 142 | 0.0 | 1.0 | 0.06 | 0.23 | 0.23 | 92 | 1008.6 |
| 20260506132730 | 60 | 157 | 0.0 | 1.0 | 0.06 | 0.21 | 0.23 | 92 | 1008.7 |
| 20260506132624 | 60 | 157 | 0.0 | 1.0 | 0.06 | 0.21 | 0.23 | 92 | 1008.7 |
| 20260506132520 | 60 | 135 | 0.0 | 1.0 | 0.08 | 0.21 | 0.21 | 92 | 1008.7 |
| 20260506132417 | 60 | 135 | 0.0 | 1.0 | 0.09 | 0.21 | 0.21 | 91 | 1008.8 |
| 20260506132311 | 60 | 150 | 0.0 | 1.0 | 0.10 | 0.21 | 0.21 | 91 | 1008.8 |
| 20260506132206 | 60 | 162 | 0.0 | 1.0 | 0.13 | 0.21 | 0.21 | 91 | 1008.8 |
| 20260506132104 | 60 | 162 | 0.0 | 1.0 | 0.17 | 0.21 | 0.21 | 91 | 1008.8 |
| 20260506132000 | 61 | 161 | 0.0 | 1.0 | 0.24 | 0.21 | 0.21 | 91 | 1008.9 |
| 20260506131854 | 60 | 178 | 0.0 | 0.0 | 0.30 | 0.21 | 0.21 | 91 | 1008.8 |
| 20260506131749 | 60 | 137 | 0.0 | 0.0 | 0.30 | 0.21 | 0.21 | 91 | 1008.9 |
| 20260506131643 | 61 | 137 | 0.0 | 0.0 | 0.19 | 0.19 | 0.21 | 91 | 1008.8 |
| 20260506131538 | 61 | 137 | 0.0 | 0.0 | 0.19 | 0.19 | 0.21 | 91 | 1008.9 |
| 20260506131431 | 61 | 137 | 0.0 | 0.0 | 0.26 | 0.19 | 0.20 | 91 | 1008.9 |
| 20260506131326 | 61 | 111 | 0.0 | 2.0 | 0.30 | 0.19 | 0.20 | 91 | 1009.0 |
| 20260506131218 | 61 | 111 | 0.0 | 2.0 | 0.30 | 0.19 | 0.19 | 91 | 1009.0 |
| 20260506131113 | 61 | 102 | 0.0 | 2.0 | 0.55 | 0.18 | 0.19 | 91 | 1009.0 |
| 20260506131008 | 61 | 102 | 0.0 | 2.0 | 0.47 | 0.16 | 0.18 | 91 | 1009.1 |
| 20260506130905 | 61 | 192 | 0.0 | 1.0 | 0.17 | 0.16 | 0.17 | 91 | 1009.2 |
| 20260506130800 | 61 | 47 | 0.0 | 1.0 | 0.17 | 0.16 | 0.16 | 91 | 1009.0 |
| 20260506130655 | 61 | 47 | 0.0 | 1.0 | 0.10 | 0.16 | 0.16 | 91 | 1009.1 |
| 20260506130551 | 61 | 300 | 0.0 | 1.0 | 0.10 | 0.16 | 0.16 | 91 | 1009.1 |
| 20260506130444 | 61 | 94 | 0.0 | 1.0 | 0.10 | 0.14 | 0.16 | 91 | 1009.1 |
| 20260506130339 | 61 | 67 | 0.0 | 1.0 | 0.13 | 0.14 | 0.15 | 91 | 1009.1 |
| 20260506130236 | 61 | 101 | 0.0 | 0.0 | 0.17 | 0.14 | 0.15 | 91 | 1009.1 |
| 20260506130133 | 61 | 71 | 0.0 | 0.0 | 0.24 | 0.14 | 0.15 | 91 | 1009.1 |
| 20260506130025 | 61 | 110 | 0.0 | 0.0 | 0.25 | 0.13 | 0.15 | 91 | 1009.2 |
| 20260506125917 | 61 | 116 | 0.0 | 1.0 | 0.25 | 0.13 | 0.15 | 91 | 1009.2 |
| 20260506125812 | 61 | 116 | 0.0 | 1.0 | 0.36 | 0.13 | 0.13 | 91 | 1009.1 |
| 20260506125705 | 61 | 116 | 0.0 | 1.0 | 0.36 | 0.13 | 0.13 | 91 | 1009.0 |
| 20260506125557 | 61 | 68 | 0.0 | 1.0 | 0.40 | 0.12 | 0.13 | 91 | 1009.1 |
| 20260506125454 | 61 | 90 | 0.0 | 1.0 | 0.43 | 0.10 | 0.12 | 91 | 1009.1 |
| 20260506125351 | 61 | 90 | 0.0 | 1.0 | 0.71 | 0.09 | 0.12 | 90 | 1009.1 |
| 20260506125249 | 61 | 189 | 0.0 | 1.0 | 0.27 | 0.09 | 0.10 | 90 | 1009.1 |
| 20260506125144 | 61 | 189 | 0.0 | 1.0 | 0.40 | 0.09 | 0.10 | 90 | 1009.1 |
| 20260506125041 | 61 | 131 | 0.0 | 0.0 | 0.40 | 0.09 | 0.10 | 90 | 1009.1 |
| 20260506124936 | 61 | 189 | 0.0 | 0.0 | 0.40 | 0.08 | 0.09 | 90 | 1009.1 |
| 20260506124352 | 61 | 196 | 0.0 | 2.0 | 0.00 | 0.06 | 0.06 | 90 | 1009.1 |
| 20260506124249 | 61 | 254 | 0.0 | 2.0 | 0.00 | 0.06 | 0.06 | 90 | 1009.2 |
| 20260506123921 | 61 | 300 | 0.0 | 2.0 | 0.00 | 0.04 | 0.06 | 90 | 1009.1 |
| 20260506123819 | 61 | 277 | 0.0 | 2.0 | 0.00 | 0.04 | 0.05 | 90 | 1009.1 |
| 20260506123711 | 61 | 252 | 0.0 | 2.0 | 0.00 | 0.04 | 0.05 | 90 | 1009.0 |
| 20260506123344 | 61 | 303 | 0.0 | 0.0 | 0.00 | 0.04 | 0.05 | 89 | 1008.8 |
| 20260506123238 | 61 | 306 | 0.0 | 0.0 | 0.00 | 0.04 | 0.05 | 89 | 1008.7 |
| 20260506123133 | 61 | 306 | 0.0 | 0.0 | 0.00 | 0.04 | 0.05 | 89 | 1008.6 |
| 20260506123030 | 61 | 306 | 0.0 | 0.0 | 0.00 | 0.04 | 0.05 | 89 | 1008.6 |
| 20260506122928 | 61 | 306 | 0.0 | 0.0 | 0.00 | 0.04 | 0.05 | 89 | 1008.5 |
| 20260506122824 | 61 | 306 | 0.0 | 0.0 | 0.00 | 0.04 | 0.05 | 89 | 1008.4 |
| 20260506122722 | 61 | 306 | 0.0 | 0.0 | 0.00 | 0.04 | 0.05 | 89 | 1008.4 |
| 20260506122619 | 61 | 306 | 0.0 | 0.0 | 0.00 | 0.04 | 0.05 | 88 | 1008.4 |
| 20260506122516 | 61 | 306 | 0.0 | 0.0 | 0.00 | 0.04 | 0.05 | 88 | 1008.5 |
| 20260506122411 | 61 | 293 | 0.0 | 0.0 | 0.00 | 0.04 | 0.05 | 88 | 1008.4 |
| 20260506122306 | 61 | 293 | 0.0 | 0.0 | 0.00 | 0.04 | 0.05 | 88 | 1008.5 |
| 20260506122203 | 61 | 293 | 0.0 | 0.0 | 0.00 | 0.04 | 0.05 | 88 | 1008.5 |
| 20260506122056 | 61 | 293 | 0.0 | 0.0 | 0.00 | 0.04 | 0.05 | 88 | 1008.5 |
| 20260506121953 | 61 | 293 | 0.0 | 0.0 | 0.00 | 0.04 | 0.05 | 88 | 1008.5 |
| 20260506121851 | 61 | 293 | 0.0 | 0.0 | 0.00 | 0.04 | 0.05 | 88 | 1008.5 |
| 20260506121744 | 61 | 292 | 0.0 | 1.0 | 0.04 | 0.04 | 0.05 | 88 | 1008.5 |
| 20260506121639 | 61 | 293 | 0.0 | 1.0 | 0.04 | 0.04 | 0.05 | 88 | 1008.5 |
| 20260506121536 | 61 | 126 | 0.0 | 0.0 | 0.04 | 0.04 | 0.05 | 88 | 1008.5 |
| 20260506121434 | 62 | 126 | 0.0 | 0.0 | 0.05 | 0.04 | 0.05 | 88 | 1008.5 |
| 20260506121331 | 62 | 126 | 0.0 | 0.0 | 0.05 | 0.04 | 0.05 | 88 | 1008.4 |
| 20260506121228 | 62 | 126 | 0.0 | 0.0 | 0.05 | 0.04 | 0.05 | 88 | 1008.4 |
| 20260506121124 | 62 | 126 | 0.0 | 0.0 | 0.06 | 0.04 | 0.05 | 88 | 1008.4 |
| 20260506120756 | 62 | 138 | 0.0 | 0.0 | 0.09 | 0.04 | 0.05 | 87 | 1008.6 |
| 20260506120652 | 62 | 126 | 0.0 | 0.0 | 0.10 | 0.04 | 0.05 | 87 | 1008.7 |
| 20260506120550 | 62 | 126 | 0.0 | 0.0 | 0.10 | 0.04 | 0.05 | 87 | 1008.6 |
| 20260506120447 | 62 | 106 | 0.0 | 0.0 | 0.10 | 0.04 | 0.05 | 87 | 1008.6 |
| 20260506120343 | 62 | 106 | 0.0 | 0.0 | 0.10 | 0.04 | 0.05 | 87 | 1008.6 |
| 20260506120237 | 62 | 106 | 0.0 | 0.0 | 0.10 | 0.04 | 0.05 | 87 | 1008.6 |
| 20260506120132 | 62 | 106 | 0.0 | 3.0 | 0.10 | 0.04 | 0.05 | 87 | 1008.6 |
| 20260506120027 | 62 | 106 | 0.0 | 3.0 | 0.10 | 0.04 | 0.04 | 86 | 1008.6 |
| 20260506115700 | 62 | 106 | 0.0 | 3.0 | 0.10 | 0.04 | 0.04 | 86 | 1008.6 |
| 20260506115339 | 62 | 141 | 0.0 | 3.0 | 0.06 | 0.03 | 0.03 | 86 | 1008.7 |
| 20260506115236 | 62 | 215 | 0.0 | 3.0 | 0.06 | 0.03 | 0.03 | 85 | 1008.7 |
| 20260506115131 | 62 | 117 | 0.0 | 1.0 | 0.06 | 0.03 | 0.03 | 85 | 1008.9 |
| 20260506115025 | 62 | 132 | 0.0 | 1.0 | 0.06 | 0.02 | 0.03 | 85 | 1009.0 |
| 20260506114920 | 62 | 171 | 0.0 | 0.0 | 0.06 | 0.02 | 0.02 | 85 | 1009.0 |
| 20260506114815 | 62 | 241 | 0.0 | 0.0 | 0.06 | 0.02 | 0.02 | 85 | 1009.0 |
| 20260506114449 | 62 | 40 | 0.0 | 0.0 | 0.10 | 0.02 | 0.02 | 84 | 1009.0 |
| 20260506114119 | 63 | 313 | 0.0 | 0.0 | 0.10 | 0.01 | 0.02 | 84 | 1009.0 |
| 20260506114017 | 63 | 313 | 0.0 | 0.0 | 0.10 | 0.01 | 0.01 | 84 | 1009.0 |
| 20260506113426 | 63 | 99 | 0.0 | 2.0 | 0.00 | 0.00 | 0.01 | 83 | 1009.0 |
| 20260506113322 | 63 | 338 | 0.0 | 2.0 | 0.00 | 0.00 | 0.00 | 83 | 1009.0 |
| 20260506113215 | 63 | 192 | 0.0 | 2.0 | 0.00 | 0.00 | 0.00 | 83 | 1009.0 |
| 20260506112853 | 63 | 315 | 0.0 | 1.0 | 0.00 | 0.00 | 0.00 | 82 | 1008.9 |
| 20260506112751 | 63 | 309 | 0.0 | 1.0 | 0.00 | 0.00 | 0.00 | 82 | 1008.9 |
| 20260506112645 | 63 | 309 | 0.0 | 1.0 | 0.00 | 0.00 | 0.00 | 81 | 1008.8 |
| 20260506112537 | 63 | 309 | 0.0 | 0.0 | 0.00 | 0.00 | 0.00 | 81 | 1008.8 |
| 20260506112215 | 63 | 161 | 0.0 | 1.0 | 0.00 | 0.00 | 0.00 | 81 | 1008.6 |
| 20260506112110 | 63 | 118 | 0.0 | 1.0 | 0.00 | 0.00 | 0.00 | 80 | 1008.6 |
| 20260506112002 | 63 | 169 | 0.0 | 2.0 | 0.00 | 0.00 | 0.00 | 80 | 1008.6 |
| 20260506111858 | 63 | 140 | 0.0 | 2.0 | 0.00 | 0.00 | 0.00 | 80 | 1008.6 |
| 20260506111750 | 63 | 130 | 0.0 | 2.0 | 0.00 | 0.00 | 0.00 | 80 | 1008.5 |
| 20260506111647 | 63 | 130 | 0.0 | 2.0 | 0.00 | 0.00 | 0.00 | 80 | 1008.5 |
| 20260506111323 | 63 | 145 | 0.0 | 2.0 | 0.00 | 0.00 | 0.00 | 79 | 1008.5 |
| 20260506111217 | 63 | 145 | 0.0 | 2.0 | 0.00 | 0.00 | 0.00 | 79 | 1008.6 |
| 20260506111113 | 63 | 145 | 0.0 | 2.0 | 0.00 | 0.00 | 0.00 | 79 | 1008.5 |
| 20260506111006 | 63 | 161 | 0.0 | 2.0 | 0.00 | 0.00 | 0.00 | 79 | 1008.5 |
| 20260506110900 | 63 | 146 | 0.0 | 2.0 | 0.00 | 0.00 | 0.00 | 79 | 1008.5 |
| 20260506110756 | 64 | 122 | 0.0 | 2.0 | 0.00 | 0.00 | 0.00 | 79 | 1008.5 |
| 20260506110649 | 64 | 146 | 0.0 | 2.0 | 0.00 | 0.00 | 0.00 | 78 | 1008.5 |
| 20260506110543 | 64 | 101 | 0.0 | 2.0 | 0.00 | 0.00 | 0.00 | 78 | 1008.5 |
| 20260506110436 | 64 | 160 | 0.0 | 2.0 | 0.00 | 0.00 | 0.00 | 78 | 1008.4 |
| 20260506110116 | 64 | 107 | 0.0 | 2.0 | 0.00 | 0.00 | 0.00 | 77 | 1008.4 |
| 20260506105751 | 64 | 163 | 0.0 | 2.0 | 0.00 | 0.00 | 0.00 | 77 | 1008.4 |
| 20260506105647 | 64 | 84 | 0.0 | 2.0 | 0.00 | 0.00 | 0.00 | 76 | 1008.3 |
| 20260506105322 | 64 | 74 | 0.0 | 2.0 | 0.00 | 0.00 | 0.00 | 76 | 1008.3 |
| 20260506105219 | 64 | 227 | 0.0 | 2.0 | 0.00 | 0.00 | 0.00 | 76 | 1008.3 |
| 20260506104855 | 64 | 67 | 0.0 | 3.0 | 0.00 | 0.00 | 0.00 | 76 | 1008.2 |
| 20260506104749 | 64 | 135 | 0.0 | 3.0 | 0.00 | 0.00 | 0.00 | 76 | 1008.3 |
| 20260506104643 | 64 | 207 | 0.0 | 3.0 | 0.00 | 0.00 | 0.00 | 76 | 1008.3 |
| 20260506104315 | 64 | 158 | 0.0 | 3.0 | 0.00 | 0.00 | 0.00 | 76 | 1008.3 |
| 20260506103948 | 64 | 178 | 0.0 | 7.0 | 0.00 | 0.00 | 0.00 | 76 | 1008.2 |
| 20260506103841 | 64 | 137 | 0.0 | 7.0 | 0.00 | 0.00 | 0.00 | 75 | 1008.2 |
| 20260506103734 | 64 | 192 | 0.0 | 7.0 | 0.00 | 0.00 | 0.00 | 75 | 1008.1 |
| 20260506103629 | 64 | 5 | 0.0 | 7.0 | 0.00 | 0.00 | 0.00 | 75 | 1008.1 |
| 20260506103522 | 64 | 75 | 0.0 | 7.0 | 0.00 | 0.00 | 0.00 | 75 | 1008.1 |
| 20260506103420 | 64 | 30 | 0.0 | 7.0 | 0.00 | 0.00 | 0.00 | 75 | 1008.1 |
| 20260506103316 | 64 | 30 | 0.0 | 7.0 | 0.00 | 0.00 | 0.00 | 75 | 1008.0 |
| 20260506102947 | 64 | 152 | 0.0 | 7.0 | 0.00 | 0.00 | 0.00 | 75 | 1008.0 |
| 20260506102842 | 64 | 148 | 0.0 | 7.0 | 0.00 | 0.00 | 0.00 | 75 | 1008.0 |
| 20260506102738 | 64 | 110 | 0.0 | 7.0 | 0.00 | 0.00 | 0.00 | 75 | 1008.0 |
| 20260506102634 | 64 | 89 | 0.0 | 7.0 | 0.00 | 0.00 | 0.00 | 75 | 1008.0 |
| 20260506102529 | 64 | 136 | 0.0 | 7.0 | 0.00 | 0.00 | 0.00 | 75 | 1008.0 |
| 20260506102421 | 64 | 136 | 0.0 | 7.0 | 0.00 | 0.00 | 0.00 | 74 | 1008.1 |
| 20260506102313 | 64 | 138 | 0.0 | 7.0 | 0.00 | 0.00 | 0.00 | 75 | 1008.1 |
| 20260506102207 | 64 | 142 | 0.0 | 7.0 | 0.00 | 0.00 | 0.00 | 74 | 1008.1 |
| 20260506102103 | 64 | 136 | 0.0 | 7.0 | 0.00 | 0.00 | 0.00 | 74 | 1008.1 |
| 20260506101955 | 64 | 128 | 0.0 | 4.0 | 0.00 | 0.00 | 0.00 | 74 | 1008.0 |
| 20260506101634 | 65 | 55 | 0.0 | 4.0 | 0.00 | 0.00 | 0.00 | 74 | 1008.0 |
| 20260506101527 | 65 | 55 | 0.0 | 4.0 | 0.00 | 0.00 | 0.00 | 74 | 1008.0 |
| 20260506101424 | 65 | 150 | 0.0 | 4.0 | 0.00 | 0.00 | 0.00 | 73 | 1008.0 |
| 20260506101100 | 65 | 71 | 0.0 | 4.0 | 0.00 | 0.00 | 0.00 | 73 | 1008.0 |
| 20260506100952 | 65 | 36 | 0.0 | 4.0 | 0.00 | 0.00 | 0.00 | 73 | 1008.1 |
| 20260506100845 | 65 | 204 | 0.0 | 3.0 | 0.00 | 0.00 | 0.00 | 72 | 1008.1 |
| 20260506100740 | 65 | 170 | 0.0 | 3.0 | 0.00 | 0.00 | 0.00 | 72 | 1008.1 |
| 20260506100632 | 65 | 124 | 0.0 | 3.0 | 0.00 | 0.00 | 0.00 | 72 | 1008.1 |
| 20260506100525 | 65 | 146 | 0.0 | 3.0 | 0.00 | 0.00 | 0.00 | 72 | 1008.1 |
| 20260506100419 | 65 | 155 | 0.0 | 3.0 | 0.00 | 0.00 | 0.00 | 72 | 1008.1 |
| 20260506100316 | 65 | 180 | 0.0 | 3.0 | 0.00 | 0.00 | 0.00 | 72 | 1008.0 |
| 20260506100210 | 65 | 117 | 0.0 | 3.0 | 0.00 | 0.00 | 0.00 | 72 | 1008.0 |
| 20260506100105 | 65 | 207 | 0.0 | 3.0 | 0.00 | 0.00 | 0.00 | 72 | 1008.1 |
| 20260506095745 | 65 | 327 | 0.0 | 3.0 | 0.00 | 0.00 | 0.00 | 72 | 1008.1 |
| 20260506095643 | 65 | 139 | 0.0 | 2.0 | 0.00 | 0.00 | 0.00 | 72 | 1008.1 |
| 20260506095538 | 65 | 139 | 0.0 | 2.0 | 0.00 | 0.00 | 0.00 | 72 | 1008.1 |
| 20260506095433 | 65 | 103 | 0.0 | 2.0 | 0.00 | 0.00 | 0.00 | 72 | 1008.1 |
| 20260506095325 | 65 | 118 | 0.0 | 2.0 | 0.00 | 0.00 | 0.00 | 71 | 1008.1 |
| 20260506095222 | 65 | 167 | 0.0 | 2.0 | 0.00 | 0.00 | 0.00 | 71 | 1008.1 |
| 20260506095118 | 65 | 178 | 0.0 | 2.0 | 0.00 | 0.00 | 0.00 | 71 | 1008.1 |
| 20260506095015 | 65 | 79 | 0.0 | 2.0 | 0.00 | 0.00 | 0.00 | 72 | 1008.0 |
| 20260506094907 | 65 | 210 | 0.0 | 2.0 | 0.00 | 0.00 | 0.00 | 71 | 1008.0 |
| 20260506094800 | 65 | 114 | 0.0 | 2.0 | 0.00 | 0.00 | 0.00 | 71 | 1008.0 |
| 20260506094658 | 65 | 160 | 0.0 | 2.0 | 0.00 | 0.00 | 0.00 | 71 | 1008.0 |
| 20260506094553 | 65 | 140 | 0.0 | 2.0 | 0.00 | 0.00 | 0.00 | 71 | 1008.0 |
| 20260506094447 | 65 | 139 | 0.0 | 2.0 | 0.00 | 0.00 | 0.00 | 71 | 1008.0 |
| 20260506094345 | 65 | 84 | 0.0 | 2.0 | 0.00 | 0.00 | 0.00 | 71 | 1008.0 |
| 20260506094240 | 65 | 84 | 0.0 | 2.0 | 0.00 | 0.00 | 0.00 | 71 | 1008.1 |
| 20260506094135 | 65 | 173 | 0.0 | 2.0 | 0.00 | 0.00 | 0.00 | 70 | 1008.0 |
| 20260506093810 | 65 | 52 | 0.0 | 6.0 | 0.00 | 0.00 | 0.00 | 70 | 1008.1 |
| 20260506093705 | 65 | 157 | 0.0 | 6.0 | 0.00 | 0.00 | 0.00 | 70 | 1008.1 |
| 20260506093559 | 65 | 265 | 0.0 | 6.0 | 0.00 | 0.00 | 0.00 | 70 | 1008.1 |
| 20260506093456 | 65 | 133 | 0.0 | 6.0 | 0.00 | 0.00 | 0.00 | 70 | 1008.1 |
| 20260506093349 | 65 | 105 | 0.0 | 6.0 | 0.00 | 0.00 | 0.00 | 70 | 1008.2 |
| 20260506093243 | 65 | 346 | 0.0 | 6.0 | 0.00 | 0.00 | 0.00 | 70 | 1008.2 |
| 20260506093139 | 65 | 55 | 0.0 | 6.0 | 0.00 | 0.00 | 0.00 | 70 | 1008.2 |
| 20260506093032 | 65 | 109 | 0.0 | 6.0 | 0.00 | 0.00 | 0.00 | 70 | 1008.3 |
| 20260506092928 | 65 | 178 | 0.0 | 6.0 | 0.00 | 0.00 | 0.00 | 70 | 1008.2 |
| 20260506092820 | 65 | 107 | 0.0 | 6.0 | 0.00 | 0.00 | 0.00 | 70 | 1008.2 |
| 20260506092236 | 66 | 131 | 0.0 | 6.0 | 0.00 | 0.00 | 0.00 | 70 | 1008.2 |
| 20260506092129 | 66 | 290 | 1.0 | 6.0 | 0.00 | 0.00 | 0.00 | 70 | 1008.2 |
| 20260506092028 | 66 | 178 | 0.0 | 5.0 | 0.00 | 0.00 | 0.00 | 70 | 1008.1 |
| 20260506091919 | 66 | 152 | 0.0 | 4.0 | 0.00 | 0.00 | 0.00 | 70 | 1008.1 |
| 20260506091553 | 66 | 33 | 0.0 | 4.0 | 0.00 | 0.00 | 0.00 | 70 | 1008.1 |
| 20260506091448 | 66 | 123 | 0.0 | 4.0 | 0.00 | 0.00 | 0.00 | 69 | 1008.1 |
| 20260506091345 | 66 | 152 | 0.0 | 4.0 | 0.00 | 0.00 | 0.00 | 69 | 1008.1 |
| 20260506091238 | 66 | 115 | 0.0 | 4.0 | 0.00 | 0.00 | 0.00 | 69 | 1008.2 |
| 20260506091132 | 66 | 116 | 0.0 | 4.0 | 0.00 | 0.00 | 0.00 | 69 | 1008.1 |
| 20260506091027 | 66 | 190 | 0.0 | 3.0 | 0.00 | 0.00 | 0.00 | 69 | 1008.2 |
| 20260506090925 | 66 | 255 | 0.0 | 3.0 | 0.00 | 0.00 | 0.00 | 69 | 1008.2 |
| 20260506090818 | 66 | 154 | 0.0 | 3.0 | 0.00 | 0.00 | 0.00 | 69 | 1008.2 |
| 20260506090713 | 66 | 123 | 0.0 | 3.0 | 0.00 | 0.00 | 0.00 | 69 | 1008.3 |
| 20260506090607 | 66 | 59 | 0.0 | 3.0 | 0.00 | 0.00 | 0.00 | 69 | 1008.2 |
| 20260506090502 | 66 | 191 | 0.0 | 3.0 | 0.00 | 0.00 | 0.00 | 69 | 1008.3 |
| 20260506090358 | 66 | 159 | 0.0 | 3.0 | 0.00 | 0.00 | 0.00 | 69 | 1008.3 |
| 20260506090256 | 66 | 138 | 0.0 | 3.0 | 0.00 | 0.00 | 0.00 | 69 | 1008.3 |
| 20260506090151 | 66 | 96 | 0.0 | 5.0 | 0.00 | 0.00 | 0.00 | 69 | 1008.3 |
| 20260506085825 | 66 | 163 | 0.0 | 5.0 | 0.00 | 0.00 | 0.00 | 69 | 1008.3 |
| 20260506085721 | 66 | 163 | 0.0 | 5.0 | 0.00 | 0.00 | 0.00 | 69 | 1008.3 |
| 20260506085617 | 66 | 119 | 0.0 | 5.0 | 0.00 | 0.00 | 0.00 | 69 | 1008.4 |
| 20260506085252 | 66 | 188 | 0.0 | 5.0 | 0.00 | 0.00 | 0.00 | 69 | 1008.3 |
| 20260506085145 | 66 | 157 | 0.0 | 8.0 | 0.00 | 0.00 | 0.00 | 69 | 1008.3 |
| 20260506084825 | 66 | 194 | 1.0 | 8.0 | 0.00 | 0.00 | 0.00 | 69 | 1008.2 |
| 20260506084721 | 66 | 274 | 1.0 | 8.0 | 0.00 | 0.00 | 0.00 | 68 | 1008.2 |
| 20260506084617 | 66 | 109 | 1.0 | 8.0 | 0.00 | 0.00 | 0.00 | 68 | 1008.3 |
| 20260506084248 | 66 | 185 | 1.0 | 8.0 | 0.00 | 0.00 | 0.00 | 68 | 1008.3 |
| 20260506084145 | 66 | 57 | 1.0 | 8.0 | 0.00 | 0.00 | 0.00 | 68 | 1008.2 |
| 20260506084041 | 66 | 30 | 1.0 | 8.0 | 0.00 | 0.00 | 0.00 | 68 | 1008.2 |
| 20260506083936 | 66 | 101 | 1.0 | 8.0 | 0.00 | 0.00 | 0.00 | 68 | 1008.2 |
| 20260506083830 | 66 | 110 | 1.0 | 8.0 | 0.00 | 0.00 | 0.00 | 68 | 1008.3 |
| 20260506083725 | 66 | 212 | 1.0 | 8.0 | 0.00 | 0.00 | 0.00 | 68 | 1008.3 |
| 20260506083620 | 66 | 93 | 1.0 | 8.0 | 0.00 | 0.00 | 0.00 | 68 | 1008.3 |
| 20260506083513 | 66 | 179 | 0.0 | 8.0 | 0.00 | 0.00 | 0.00 | 68 | 1008.3 |
| 20260506083407 | 66 | 246 | 0.0 | 8.0 | 0.00 | 0.00 | 0.00 | 68 | 1008.3 |
| 20260506083304 | 66 | 184 | 0.0 | 8.0 | 0.00 | 0.00 | 0.00 | 68 | 1008.3 |
| 20260506083201 | 66 | 239 | 0.0 | 8.0 | 0.00 | 0.00 | 0.00 | 68 | 1008.3 |
| 20260506083053 | 66 | 106 | 0.0 | 4.0 | 0.00 | 0.00 | 0.00 | 68 | 1008.3 |
| 20260506082731 | 66 | 78 | 0.0 | 6.0 | 0.00 | 0.00 | 0.00 | 68 | 1008.4 |
| 20260506082624 | 66 | 78 | 0.0 | 6.0 | 0.00 | 0.00 | 0.00 | 68 | 1008.3 |
| 20260506082519 | 66 | 113 | 0.0 | 6.0 | 0.00 | 0.00 | 0.00 | 67 | 1008.2 |
| 20260506082155 | 66 | 125 | 0.0 | 6.0 | 0.00 | 0.00 | 0.00 | 68 | 1008.4 |
| 20260506082048 | 66 | 118 | 0.0 | 6.0 | 0.00 | 0.00 | 0.00 | 68 | 1008.4 |
| 20260506081721 | 66 | 159 | 0.0 | 10.0 | 0.00 | 0.00 | 0.00 | 68 | 1008.5 |
| 20260506081614 | 66 | 221 | 0.0 | 10.0 | 0.00 | 0.00 | 0.00 | 67 | 1008.5 |
| 20260506081511 | 66 | 119 | 0.0 | 10.0 | 0.00 | 0.00 | 0.00 | 67 | 1008.4 |
| 20260506080927 | 66 | 126 | 0.0 | 10.0 | 0.00 | 0.00 | 0.00 | 67 | 1008.5 |
| 20260506080821 | 66 | 132 | 0.0 | 10.0 | 0.00 | 0.00 | 0.00 | 67 | 1008.5 |
| 20260506080458 | 66 | 142 | 1.0 | 10.0 | 0.00 | 0.00 | 0.00 | 67 | 1008.3 |
| 20260506080352 | 66 | 160 | 1.0 | 10.0 | 0.00 | 0.00 | 0.00 | 67 | 1008.4 |
| 20260506080249 | 66 | 151 | 1.0 | 10.0 | 0.00 | 0.00 | 0.00 | 67 | 1008.4 |
| 20260506080147 | 66 | 151 | 1.0 | 10.0 | 0.00 | 0.00 | 0.00 | 67 | 1008.4 |
| 20260506073510 | 67 | 169 | 1.0 | 7.0 | 0.00 | 0.00 | 0.00 | 65 | 1008.3 |
| 20260506073403 | 67 | 158 | 1.0 | 7.0 | 0.00 | 0.00 | 0.00 | 65 | 1008.3 |
| 20260506073037 | 67 | 119 | 0.0 | 6.0 | 0.00 | 0.00 | 0.00 | 66 | 1008.4 |
| 20260506072930 | 67 | 70 | 0.0 | 6.0 | 0.00 | 0.00 | 0.00 | 66 | 1008.3 |
| 20260506072824 | 67 | 80 | 0.0 | 6.0 | 0.00 | 0.00 | 0.00 | 65 | 1008.4 |
| 20260506072720 | 67 | 133 | 0.0 | 6.0 | 0.00 | 0.00 | 0.00 | 65 | 1008.4 |
| 20260506072613 | 67 | 144 | 0.0 | 6.0 | 0.00 | 0.00 | 0.00 | 65 | 1008.4 |
| 20260506072248 | 67 | 82 | 0.0 | 6.0 | 0.00 | 0.00 | 0.00 | 65 | 1008.4 |
| 20260506072145 | 67 | 140 | 0.0 | 6.0 | 0.00 | 0.00 | 0.00 | 66 | 1008.5 |
| 20260506071817 | 67 | 202 | 1.0 | 6.0 | 0.00 | 0.00 | 0.00 | 66 | 1008.5 |
| 20260506071714 | 67 | 355 | 1.0 | 6.0 | 0.00 | 0.00 | 0.00 | 65 | 1008.5 |
| 20260506071612 | 67 | 40 | 1.0 | 6.0 | 0.00 | 0.00 | 0.00 | 65 | 1008.4 |
| 20260506071244 | 67 | 142 | 0.0 | 6.0 | 0.00 | 0.00 | 0.00 | 65 | 1008.4 |
| 20260506071138 | 67 | 120 | 0.0 | 6.0 | 0.00 | 0.00 | 0.00 | 65 | 1008.4 |
| 20260506071036 | 67 | 140 | 0.0 | 6.0 | 0.00 | 0.00 | 0.00 | 65 | 1008.4 |
| 20260506070929 | 67 | 134 | 0.0 | 6.0 | 0.00 | 0.00 | 0.00 | 65 | 1008.4 |
| 20260506070824 | 67 | 40 | 0.0 | 6.0 | 0.00 | 0.00 | 0.00 | 64 | 1008.4 |
| 20260506070718 | 67 | 181 | 0.0 | 6.0 | 0.00 | 0.00 | 0.00 | 64 | 1008.4 |
| 20260506070613 | 67 | 221 | 0.0 | 6.0 | 0.00 | 0.00 | 0.00 | 65 | 1008.5 |